| time (UTC) | temp C | wind direction | speed KPH | gust KPH | rain 1hr cm | rain 24hr cm | rain mn cm | humidity % | barometer mb |
| 20260507033202 | 16 | 184 | 4.8 | 11.3 | 0.05 | 0.36 | 0.36 | 95 | 1012.5 |
| 20260507033058 | 16 | 184 | 4.8 | 12.9 | 0.05 | 0.36 | 0.36 | 95 | 1012.5 |
| 20260507032958 | 16 | 163 | 4.8 | 12.9 | 0.05 | 0.36 | 0.36 | 95 | 1012.5 |
| 20260507032859 | 16 | 164 | 4.8 | 16.1 | 0.05 | 0.36 | 0.36 | 95 | 1012.4 |
| 20260507032658 | 16 | 150 | 4.8 | 16.1 | 0.05 | 0.36 | 0.36 | 95 | 1012.5 |
| 20260507032558 | 16 | 142 | 4.8 | 16.1 | 0.05 | 0.36 | 0.36 | 95 | 1012.5 |
| 20260507032459 | 16 | 155 | 4.8 | 16.1 | 0.05 | 0.36 | 0.36 | 95 | 1012.5 |
| 20260507032355 | 16 | 176 | 4.8 | 16.1 | 0.05 | 0.36 | 0.36 | 94 | 1012.6 |
| 20260507032255 | 16 | 166 | 4.8 | 16.1 | 0.05 | 0.36 | 0.36 | 94 | 1012.6 |
| 20260507032154 | 16 | 138 | 4.8 | 16.1 | 0.05 | 0.36 | 0.36 | 94 | 1012.6 |
| 20260507032054 | 16 | 201 | 4.8 | 16.1 | 0.05 | 0.36 | 0.36 | 94 | 1012.5 |
| 20260507031954 | 16 | 192 | 4.8 | 16.1 | 0.05 | 0.36 | 0.36 | 94 | 1012.5 |
| 20260507031856 | 16 | 255 | 4.8 | 16.1 | 0.05 | 0.36 | 0.36 | 94 | 1012.5 |
| 20260507031754 | 16 | 163 | 4.8 | 16.1 | 0.05 | 0.36 | 0.36 | 94 | 1012.4 |
| 20260507031652 | 16 | 174 | 4.8 | 14.5 | 0.08 | 0.36 | 0.36 | 94 | 1012.5 |
| 20260507031550 | 16 | 175 | 4.8 | 14.5 | 0.08 | 0.36 | 0.36 | 94 | 1012.4 |
| 20260507031450 | 16 | 224 | 6.4 | 14.5 | 0.08 | 0.36 | 0.36 | 94 | 1012.2 |
| 20260507031350 | 16 | 153 | 6.4 | 14.5 | 0.08 | 0.36 | 0.36 | 94 | 1012.2 |
| 20260507031252 | 16 | 205 | 6.4 | 14.5 | 0.08 | 0.36 | 0.36 | 94 | 1012.0 |
| 20260507031150 | 16 | 227 | 6.4 | 14.5 | 0.08 | 0.36 | 0.36 | 94 | 1011.8 |
| 20260507031048 | 16 | 179 | 6.4 | 14.5 | 0.08 | 0.36 | 0.36 | 94 | 1011.7 |
| 20260507030949 | 16 | 182 | 6.4 | 14.5 | 0.08 | 0.36 | 0.36 | 94 | 1011.6 |
| 20260507030848 | 16 | 167 | 6.4 | 14.5 | 0.08 | 0.36 | 0.36 | 94 | 1011.6 |
| 20260507030750 | 16 | 159 | 6.4 | 11.3 | 0.08 | 0.36 | 0.36 | 94 | 1011.7 |
| 20260507030644 | 16 | 204 | 4.8 | 11.3 | 0.10 | 0.36 | 0.36 | 94 | 1011.6 |
| 20260507030545 | 16 | 157 | 4.8 | 11.3 | 0.10 | 0.36 | 0.36 | 94 | 1011.7 |
| 20260507030446 | 16 | 188 | 4.8 | 12.9 | 0.10 | 0.36 | 0.36 | 94 | 1011.7 |
| 20260507030344 | 16 | 176 | 4.8 | 12.9 | 0.10 | 0.36 | 0.36 | 94 | 1011.8 |
| 20260507030245 | 16 | 162 | 4.8 | 12.9 | 0.10 | 0.36 | 0.36 | 94 | 1012.0 |
| 20260507030145 | 16 | 155 | 6.4 | 12.9 | 0.10 | 0.36 | 0.36 | 94 | 1012.0 |
| 20260507030044 | 16 | 180 | 6.4 | 12.9 | 0.10 | 0.36 | 0.36 | 94 | 1012.1 |
| 20260507025944 | 16 | 191 | 4.8 | 12.9 | 0.10 | 0.36 | 0.36 | 93 | 1012.2 |
| 20260507025842 | 16 | 191 | 4.8 | 12.9 | 0.10 | 0.36 | 0.36 | 93 | 1012.2 |
| 20260507025741 | 16 | 158 | 4.8 | 12.9 | 0.10 | 0.36 | 0.36 | 93 | 1012.2 |
| 20260507025641 | 16 | 172 | 4.8 | 12.9 | 0.10 | 0.36 | 0.36 | 93 | 1012.2 |
| 20260507025541 | 16 | 196 | 4.8 | 12.9 | 0.10 | 0.36 | 0.36 | 93 | 1012.3 |
| 20260507025440 | 16 | 165 | 4.8 | 12.9 | 0.10 | 0.36 | 0.36 | 94 | 1012.3 |
| 20260507025340 | 16 | 184 | 4.8 | 12.9 | 0.10 | 0.36 | 0.36 | 94 | 1012.3 |
| 20260507025240 | 16 | 157 | 4.8 | 12.9 | 0.10 | 0.36 | 0.36 | 94 | 1012.3 |
| 20260507025140 | 16 | 175 | 4.8 | 12.9 | 0.10 | 0.36 | 0.36 | 94 | 1012.3 |
| 20260507025041 | 16 | 158 | 4.8 | 12.9 | 0.10 | 0.36 | 0.36 | 94 | 1012.3 |
| 20260507024941 | 16 | 184 | 4.8 | 12.9 | 0.10 | 0.36 | 0.36 | 94 | 1012.3 |
| 20260507024841 | 16 | 185 | 4.8 | 12.9 | 0.10 | 0.36 | 0.36 | 94 | 1012.5 |
| 20260507024742 | 16 | 187 | 4.8 | 12.9 | 0.10 | 0.36 | 0.36 | 94 | 1012.6 |
| 20260507024639 | 16 | 188 | 3.2 | 12.9 | 0.10 | 0.36 | 0.36 | 94 | 1012.5 |
| 20260507024539 | 16 | 188 | 3.2 | 12.9 | 0.13 | 0.36 | 0.36 | 94 | 1012.4 |
| 20260507024440 | 16 | 146 | 3.2 | 12.9 | 0.13 | 0.36 | 0.36 | 94 | 1012.2 |
| 20260507024338 | 16 | 105 | 3.2 | 12.9 | 0.13 | 0.36 | 0.36 | 94 | 1012.2 |
| 20260507024238 | 16 | 138 | 3.2 | 12.9 | 0.13 | 0.36 | 0.36 | 94 | 1012.6 |
| 20260507024139 | 16 | 135 | 1.6 | 12.9 | 0.13 | 0.36 | 0.36 | 94 | 1013.2 |
| 20260507024039 | 16 | 111 | 1.6 | 9.7 | 0.13 | 0.36 | 0.36 | 94 | 1013.5 |
| 20260507023938 | 16 | 104 | 1.6 | 9.7 | 0.13 | 0.36 | 0.36 | 94 | 1013.8 |
| 20260507023838 | 16 | 341 | 1.6 | 9.7 | 0.10 | 0.33 | 0.36 | 94 | 1013.9 |
| 20260507023738 | 16 | 317 | 1.6 | 9.7 | 0.10 | 0.33 | 0.33 | 94 | 1014.0 |
| 20260507023638 | 16 | 180 | 1.6 | 9.7 | 0.10 | 0.33 | 0.33 | 94 | 1013.9 |
| 20260507023537 | 16 | 180 | 3.2 | 9.7 | 0.10 | 0.33 | 0.33 | 94 | 1013.9 |
| 20260507023437 | 16 | 186 | 3.2 | 9.7 | 0.10 | 0.33 | 0.33 | 94 | 1014.0 |
| 20260507023337 | 16 | 180 | 1.6 | 6.4 | 0.10 | 0.33 | 0.33 | 94 | 1014.1 |
| 20260507023237 | 16 | 88 | 1.6 | 6.4 | 0.08 | 0.30 | 0.33 | 94 | 1014.1 |
| 20260507023138 | 16 | 120 | 1.6 | 6.4 | 0.08 | 0.30 | 0.30 | 94 | 1014.0 |
| 20260507023037 | 16 | 87 | 1.6 | 4.8 | 0.08 | 0.30 | 0.30 | 94 | 1014.0 |
| 20260507022936 | 16 | 114 | 1.6 | 4.8 | 0.08 | 0.30 | 0.30 | 94 | 1013.9 |
| 20260507022837 | 16 | 113 | 1.6 | 6.4 | 0.08 | 0.30 | 0.30 | 94 | 1013.9 |
| 20260507022736 | 16 | 105 | 1.6 | 6.4 | 0.08 | 0.30 | 0.30 | 94 | 1013.8 |
| 20260507022637 | 16 | 97 | 3.2 | 6.4 | 0.08 | 0.30 | 0.30 | 94 | 1013.8 |
| 20260507022537 | 16 | 85 | 3.2 | 11.3 | 0.08 | 0.30 | 0.30 | 94 | 1013.9 |
| 20260507022436 | 16 | 103 | 3.2 | 11.3 | 0.08 | 0.30 | 0.30 | 94 | 1013.8 |
| 20260507022336 | 16 | 103 | 3.2 | 11.3 | 0.08 | 0.30 | 0.30 | 94 | 1013.5 |
| 20260507022237 | 16 | 103 | 3.2 | 11.3 | 0.08 | 0.30 | 0.30 | 93 | 1013.5 |
| 20260507022136 | 16 | 169 | 3.2 | 11.3 | 0.08 | 0.30 | 0.30 | 93 | 1013.5 |
| 20260507022038 | 16 | 169 | 3.2 | 11.3 | 0.08 | 0.30 | 0.30 | 93 | 1013.7 |
| 20260507021937 | 17 | 169 | 3.2 | 11.3 | 0.08 | 0.30 | 0.30 | 94 | 1013.7 |
| 20260507021836 | 17 | 175 | 3.2 | 11.3 | 0.08 | 0.30 | 0.30 | 93 | 1013.7 |
| 20260507021736 | 16 | 169 | 3.2 | 11.3 | 0.08 | 0.30 | 0.30 | 94 | 1013.7 |
| 20260507021636 | 16 | 143 | 1.6 | 11.3 | 0.05 | 0.28 | 0.30 | 94 | 1013.5 |
| 20260507021537 | 17 | 159 | 1.6 | 8.0 | 0.05 | 0.28 | 0.28 | 94 | 1013.7 |
| 20260507021437 | 17 | 153 | 1.6 | 6.4 | 0.05 | 0.28 | 0.28 | 94 | 1013.7 |
| 20260507021336 | 17 | 109 | 1.6 | 4.8 | 0.05 | 0.28 | 0.28 | 94 | 1013.5 |
| 20260507021237 | 17 | 109 | 1.6 | 6.4 | 0.05 | 0.28 | 0.28 | 94 | 1013.7 |
| 20260507021136 | 17 | 109 | 1.6 | 6.4 | 0.05 | 0.28 | 0.28 | 93 | 1013.5 |
| 20260507021037 | 17 | 98 | 1.6 | 6.4 | 0.05 | 0.28 | 0.28 | 94 | 1013.5 |
| 20260507020938 | 17 | 51 | 1.6 | 6.4 | 0.05 | 0.28 | 0.28 | 94 | 1013.5 |
| 20260507020837 | 17 | 34 | 3.2 | 6.4 | 0.05 | 0.28 | 0.28 | 94 | 1013.5 |
| 20260507020736 | 17 | 227 | 3.2 | 6.4 | 0.05 | 0.28 | 0.28 | 93 | 1013.5 |
| 20260507020637 | 17 | 200 | 3.2 | 6.4 | 0.03 | 0.25 | 0.25 | 94 | 1013.5 |
| 20260507020537 | 17 | 133 | 3.2 | 8.0 | 0.03 | 0.25 | 0.25 | 93 | 1013.5 |
| 20260507020432 | 17 | 134 | 3.2 | 11.3 | 0.03 | 0.25 | 0.25 | 94 | 1013.5 |
| 20260507020333 | 17 | 186 | 3.2 | 11.3 | 0.03 | 0.25 | 0.25 | 94 | 1013.4 |
| 20260507020233 | 17 | 171 | 3.2 | 11.3 | 0.03 | 0.25 | 0.25 | 93 | 1013.4 |
| 20260507020133 | 17 | 246 | 3.2 | 11.3 | 0.03 | 0.25 | 0.25 | 93 | 1013.4 |
| 20260507020034 | 17 | 97 | 3.2 | 11.3 | 0.05 | 0.25 | 0.25 | 94 | 1013.4 |
| 20260507015932 | 17 | 96 | 3.2 | 11.3 | 0.05 | 0.25 | 0.25 | 94 | 1013.5 |
| 20260507015833 | 17 | 94 | 3.2 | 11.3 | 0.05 | 0.25 | 0.25 | 93 | 1013.5 |
| 20260507015732 | 17 | 348 | 3.2 | 11.3 | 0.05 | 0.25 | 0.25 | 94 | 1013.4 |
| 20260507015634 | 17 | 216 | 3.2 | 11.3 | 0.05 | 0.25 | 0.25 | 94 | 1013.5 |
| 20260507015533 | 17 | 186 | 3.2 | 11.3 | 0.05 | 0.25 | 0.25 | 94 | 1013.3 |
| 20260507015432 | 17 | 135 | 3.2 | 11.3 | 0.05 | 0.25 | 0.25 | 94 | 1013.3 |
| 20260507015332 | 17 | 61 | 3.2 | 11.3 | 0.05 | 0.25 | 0.25 | 94 | 1013.4 |
| 20260507015234 | 17 | 225 | 3.2 | 9.7 | 0.05 | 0.25 | 0.25 | 94 | 1013.5 |
| 20260507015133 | 17 | 97 | 3.2 | 8.0 | 0.05 | 0.25 | 0.25 | 94 | 1013.5 |
| 20260507015033 | 17 | 184 | 1.6 | 8.0 | 0.05 | 0.25 | 0.25 | 94 | 1013.4 |
| 20260507014932 | 17 | 213 | 3.2 | 8.0 | 0.05 | 0.25 | 0.25 | 94 | 1013.4 |
| 20260507014833 | 17 | 170 | 3.2 | 8.0 | 0.05 | 0.25 | 0.25 | 94 | 1013.5 |
| 20260507014732 | 17 | 141 | 3.2 | 8.0 | 0.05 | 0.25 | 0.25 | 94 | 1013.5 |
| 20260507014632 | 17 | 180 | 1.6 | 8.0 | 0.05 | 0.25 | 0.25 | 94 | 1013.5 |
| 20260507014532 | 17 | 26 | 3.2 | 8.0 | 0.03 | 0.23 | 0.25 | 94 | 1013.5 |
| 20260507014432 | 17 | 345 | 3.2 | 9.7 | 0.03 | 0.23 | 0.23 | 94 | 1013.4 |
| 20260507014334 | 17 | 345 | 3.2 | 9.7 | 0.03 | 0.23 | 0.23 | 94 | 1013.4 |
| 20260507014233 | 17 | 91 | 3.2 | 9.7 | 0.03 | 0.23 | 0.23 | 94 | 1013.5 |
| 20260507014132 | 17 | 108 | 3.2 | 11.3 | 0.03 | 0.23 | 0.23 | 94 | 1013.4 |
| 20260507014034 | 17 | 74 | 3.2 | 11.3 | 0.03 | 0.23 | 0.23 | 94 | 1013.5 |
| 20260507013933 | 17 | 257 | 3.2 | 11.3 | 0.03 | 0.23 | 0.23 | 94 | 1013.5 |
| 20260507013832 | 17 | 178 | 3.2 | 11.3 | 0.05 | 0.23 | 0.23 | 94 | 1013.5 |
| 20260507013733 | 17 | 69 | 3.2 | 11.3 | 0.05 | 0.23 | 0.23 | 94 | 1013.5 |
| 20260507013632 | 17 | 355 | 3.2 | 11.3 | 0.05 | 0.23 | 0.23 | 93 | 1013.5 |
| 20260507013534 | 17 | 75 | 3.2 | 11.3 | 0.05 | 0.23 | 0.23 | 93 | 1013.4 |
| 20260507013433 | 17 | 194 | 3.2 | 11.3 | 0.05 | 0.23 | 0.23 | 93 | 1013.3 |
| 20260507013332 | 17 | 30 | 3.2 | 11.3 | 0.05 | 0.23 | 0.23 | 94 | 1013.3 |
| 20260507013234 | 17 | 22 | 3.2 | 11.3 | 0.05 | 0.23 | 0.23 | 93 | 1013.3 |
| 20260507013129 | 17 | 271 | 3.2 | 8.0 | 0.05 | 0.23 | 0.23 | 93 | 1013.2 |
| 20260507013029 | 17 | 274 | 3.2 | 8.0 | 0.05 | 0.23 | 0.23 | 94 | 1013.2 |
| 20260507012929 | 17 | 211 | 3.2 | 8.0 | 0.05 | 0.23 | 0.23 | 93 | 1013.1 |
| 20260507012828 | 17 | 101 | 3.2 | 8.0 | 0.05 | 0.23 | 0.23 | 93 | 1013.1 |
| 20260507012728 | 17 | 105 | 3.2 | 8.0 | 0.05 | 0.23 | 0.23 | 93 | 1013.0 |
| 20260507012629 | 17 | 209 | 1.6 | 8.0 | 0.05 | 0.23 | 0.23 | 93 | 1013.1 |
| 20260507012528 | 17 | 182 | 1.6 | 8.0 | 0.05 | 0.23 | 0.23 | 93 | 1013.1 |
| 20260507012428 | 17 | 184 | 1.6 | 8.0 | 0.05 | 0.23 | 0.23 | 93 | 1013.2 |
| 20260507012328 | 17 | 251 | 1.6 | 6.4 | 0.05 | 0.23 | 0.23 | 93 | 1013.1 |
| 20260507012228 | 17 | 73 | 1.6 | 6.4 | 0.08 | 0.23 | 0.23 | 93 | 1013.0 |
| 20260507012128 | 17 | 355 | 1.6 | 6.4 | 0.08 | 0.23 | 0.23 | 93 | 1012.9 |
| 20260507012030 | 17 | 355 | 1.6 | 6.4 | 0.08 | 0.23 | 0.23 | 93 | 1012.9 |
| 20260507011929 | 17 | 182 | 1.6 | 16.1 | 0.08 | 0.23 | 0.23 | 93 | 1012.9 |
| 20260507011829 | 17 | 163 | 1.6 | 16.1 | 0.08 | 0.23 | 0.23 | 93 | 1012.9 |
| 20260507011729 | 17 | 163 | 1.6 | 16.1 | 0.08 | 0.23 | 0.23 | 93 | 1012.8 |
| 20260507011630 | 17 | 150 | 3.2 | 16.1 | 0.08 | 0.23 | 0.23 | 93 | 1012.6 |
| 20260507011528 | 17 | 150 | 3.2 | 16.1 | 0.08 | 0.23 | 0.23 | 93 | 1012.5 |
| 20260507011429 | 17 | 149 | 3.2 | 16.1 | 0.10 | 0.23 | 0.23 | 93 | 1012.5 |
| 20260507011328 | 17 | 151 | 3.2 | 16.1 | 0.10 | 0.23 | 0.23 | 93 | 1012.5 |
| 20260507011229 | 17 | 177 | 3.2 | 16.1 | 0.10 | 0.23 | 0.23 | 93 | 1012.5 |
| 20260507011128 | 17 | 177 | 3.2 | 16.1 | 0.10 | 0.23 | 0.23 | 93 | 1012.6 |
| 20260507011028 | 17 | 194 | 3.2 | 16.1 | 0.10 | 0.23 | 0.23 | 93 | 1012.5 |
| 20260507010928 | 17 | 98 | 3.2 | 11.3 | 0.10 | 0.23 | 0.23 | 93 | 1012.5 |
| 20260507010830 | 17 | 94 | 3.2 | 11.3 | 0.10 | 0.23 | 0.23 | 93 | 1012.6 |
| 20260507010728 | 17 | 346 | 3.2 | 11.3 | 0.10 | 0.23 | 0.23 | 93 | 1012.5 |
| 20260507010630 | 17 | 191 | 3.2 | 11.3 | 0.10 | 0.23 | 0.23 | 93 | 1012.4 |
| 20260507010521 | 17 | 312 | 3.2 | 9.7 | 0.10 | 0.23 | 0.23 | 93 | 1012.4 |
| 20260507010421 | 17 | 101 | 3.2 | 11.3 | 0.10 | 0.23 | 0.23 | 93 | 1012.3 |
| 20260507010321 | 17 | 128 | 3.2 | 11.3 | 0.10 | 0.23 | 0.23 | 93 | 1012.3 |
| 20260507010222 | 17 | 136 | 4.8 | 11.3 | 0.13 | 0.23 | 0.23 | 93 | 1012.4 |
| 20260507010122 | 17 | 87 | 4.8 | 11.3 | 0.10 | 0.20 | 0.23 | 93 | 1012.3 |
| 20260507010021 | 17 | 150 | 4.8 | 11.3 | 0.10 | 0.20 | 0.20 | 93 | 1012.3 |
| 20260507005921 | 17 | 141 | 4.8 | 11.3 | 0.10 | 0.20 | 0.20 | 93 | 1012.3 |
| 20260507005821 | 17 | 143 | 4.8 | 11.3 | 0.10 | 0.20 | 0.20 | 93 | 1012.3 |
| 20260507005720 | 17 | 144 | 4.8 | 11.3 | 0.10 | 0.20 | 0.20 | 93 | 1012.3 |
| 20260507005620 | 17 | 148 | 4.8 | 11.3 | 0.10 | 0.20 | 0.20 | 93 | 1012.3 |
| 20260507005520 | 17 | 148 | 4.8 | 11.3 | 0.10 | 0.20 | 0.20 | 93 | 1012.4 |
| 20260507005421 | 17 | 177 | 4.8 | 9.7 | 0.10 | 0.20 | 0.20 | 93 | 1012.4 |
| 20260507005321 | 17 | 215 | 4.8 | 11.3 | 0.10 | 0.20 | 0.20 | 93 | 1012.4 |
| 20260507005222 | 17 | 130 | 4.8 | 12.9 | 0.10 | 0.20 | 0.20 | 93 | 1012.4 |
| 20260507005121 | 17 | 182 | 4.8 | 12.9 | 0.10 | 0.20 | 0.20 | 93 | 1012.4 |
| 20260507005020 | 17 | 149 | 4.8 | 14.5 | 0.10 | 0.20 | 0.20 | 93 | 1012.4 |
| 20260507004820 | 17 | 165 | 4.8 | 14.5 | 0.10 | 0.20 | 0.20 | 93 | 1012.4 |
| 20260507004721 | 17 | 165 | 6.4 | 14.5 | 0.10 | 0.20 | 0.20 | 93 | 1012.5 |
| 20260507004620 | 17 | 134 | 4.8 | 14.5 | 0.10 | 0.20 | 0.20 | 93 | 1012.5 |
| 20260507004520 | 17 | 138 | 6.4 | 14.5 | 0.10 | 0.20 | 0.20 | 93 | 1012.5 |
| 20260507004421 | 17 | 274 | 6.4 | 14.5 | 0.10 | 0.20 | 0.20 | 93 | 1012.4 |
| 20260507004321 | 17 | 136 | 6.4 | 14.5 | 0.10 | 0.20 | 0.20 | 93 | 1012.5 |
| 20260507004221 | 17 | 178 | 6.4 | 20.9 | 0.10 | 0.20 | 0.20 | 93 | 1012.4 |
| 20260507004121 | 17 | 141 | 6.4 | 20.9 | 0.10 | 0.20 | 0.20 | 93 | 1012.4 |
| 20260507004021 | 17 | 165 | 6.4 | 20.9 | 0.13 | 0.20 | 0.20 | 93 | 1012.5 |
| 20260507003920 | 17 | 168 | 8.0 | 20.9 | 0.13 | 0.20 | 0.20 | 93 | 1012.6 |
| 20260507003821 | 17 | 166 | 8.0 | 20.9 | 0.10 | 0.18 | 0.20 | 93 | 1012.6 |
| 20260507003721 | 17 | 77 | 8.0 | 20.9 | 0.10 | 0.18 | 0.18 | 93 | 1012.6 |
| 20260507003621 | 17 | 150 | 8.0 | 20.9 | 0.10 | 0.18 | 0.18 | 93 | 1012.6 |
| 20260507003522 | 17 | 161 | 8.0 | 20.9 | 0.10 | 0.18 | 0.18 | 93 | 1012.5 |
| 20260507003420 | 17 | 173 | 8.0 | 20.9 | 0.10 | 0.18 | 0.18 | 93 | 1012.4 |
| 20260507003322 | 17 | 148 | 8.0 | 20.9 | 0.10 | 0.18 | 0.18 | 93 | 1012.5 |
| 20260507003216 | 17 | 182 | 8.0 | 19.3 | 0.10 | 0.18 | 0.18 | 93 | 1012.5 |
| 20260507003118 | 17 | 162 | 8.0 | 19.3 | 0.10 | 0.18 | 0.18 | 93 | 1012.6 |
| 20260507003017 | 17 | 138 | 8.0 | 19.3 | 0.10 | 0.18 | 0.18 | 93 | 1012.4 |
| 20260507002916 | 17 | 160 | 8.0 | 16.1 | 0.10 | 0.18 | 0.18 | 93 | 1012.5 |
| 20260507002817 | 17 | 183 | 8.0 | 16.1 | 0.10 | 0.18 | 0.18 | 93 | 1012.6 |
| 20260507002716 | 17 | 171 | 8.0 | 16.1 | 0.10 | 0.18 | 0.18 | 93 | 1012.4 |
| 20260507002617 | 17 | 163 | 8.0 | 16.1 | 0.10 | 0.18 | 0.18 | 93 | 1012.5 |
| 20260507002517 | 17 | 158 | 8.0 | 17.7 | 0.10 | 0.18 | 0.18 | 93 | 1012.6 |
| 20260507002417 | 17 | 148 | 8.0 | 17.7 | 0.10 | 0.18 | 0.18 | 93 | 1012.6 |
| 20260507002316 | 17 | 169 | 8.0 | 17.7 | 0.08 | 0.15 | 0.18 | 93 | 1012.5 |
| 20260507002216 | 17 | 139 | 6.4 | 17.7 | 0.08 | 0.15 | 0.15 | 93 | 1012.4 |
| 20260507002116 | 17 | 177 | 6.4 | 17.7 | 0.08 | 0.15 | 0.15 | 93 | 1012.4 |
| 20260507002017 | 17 | 143 | 6.4 | 17.7 | 0.08 | 0.15 | 0.15 | 93 | 1012.4 |
| 20260507001916 | 17 | 187 | 6.4 | 17.7 | 0.08 | 0.15 | 0.15 | 93 | 1012.4 |
| 20260507001816 | 17 | 163 | 6.4 | 17.7 | 0.08 | 0.15 | 0.15 | 93 | 1012.4 |
| 20260507001718 | 17 | 144 | 6.4 | 17.7 | 0.08 | 0.15 | 0.15 | 92 | 1012.7 |
| 20260507001615 | 17 | 161 | 6.4 | 17.7 | 0.08 | 0.15 | 0.15 | 92 | 1012.7 |
| 20260507001515 | 17 | 143 | 6.4 | 17.7 | 0.08 | 0.15 | 0.15 | 93 | 1012.7 |
| 20260507001415 | 17 | 216 | 6.4 | 17.7 | 0.05 | 0.13 | 0.13 | 92 | 1012.7 |
| 20260507001311 | 17 | 80 | 6.4 | 17.7 | 0.05 | 0.13 | 0.13 | 92 | 1012.8 |
| 20260507001208 | 17 | 272 | 8.0 | 17.7 | 0.05 | 0.13 | 0.13 | 92 | 1012.6 |
| 20260507001108 | 17 | 116 | 8.0 | 17.7 | 0.05 | 0.13 | 0.13 | 92 | 1012.5 |
| 20260507001008 | 17 | 171 | 6.4 | 14.5 | 0.05 | 0.13 | 0.13 | 92 | 1012.5 |
| 20260507000909 | 17 | 121 | 6.4 | 14.5 | 0.05 | 0.13 | 0.13 | 92 | 1012.8 |
| 20260507000804 | 17 | 156 | 6.4 | 14.5 | 0.05 | 0.13 | 0.13 | 92 | 1012.6 |
| 20260507000702 | 17 | 165 | 4.8 | 14.5 | 0.05 | 0.13 | 0.13 | 92 | 1012.8 |
| 20260507000602 | 17 | 139 | 4.8 | 12.9 | 0.05 | 0.13 | 0.13 | 92 | 1012.8 |
| 20260507000503 | 17 | 127 | 4.8 | 12.9 | 0.05 | 0.13 | 0.13 | 92 | 1012.8 |
| 20260507000405 | 17 | 156 | 4.8 | 11.3 | 0.05 | 0.13 | 0.13 | 92 | 1012.8 |
| 20260507000253 | 17 | 207 | 4.8 | 12.9 | 0.05 | 0.13 | 0.13 | 92 | 1012.8 |
| 20260507000153 | 17 | 167 | 6.4 | 12.9 | 0.03 | 0.10 | 0.13 | 92 | 1012.8 |
| 20260507000053 | 17 | 169 | 6.4 | 12.9 | 0.03 | 0.10 | 0.10 | 92 | 1012.8 |
| 20260506235952 | 17 | 168 | 6.4 | 12.9 | 0.03 | 0.10 | 0.10 | 92 | 1012.8 |
| 20260506235853 | 17 | 157 | 6.4 | 12.9 | 0.03 | 0.10 | 0.10 | 92 | 1012.8 |
| 20260506235749 | 17 | 167 | 6.4 | 12.9 | 0.03 | 0.10 | 0.10 | 92 | 1012.7 |
| 20260506235648 | 17 | 119 | 6.4 | 14.5 | 0.03 | 0.10 | 0.10 | 92 | 1012.6 |
| 20260506235549 | 17 | 186 | 6.4 | 14.5 | 0.03 | 0.10 | 0.10 | 92 | 1012.7 |
| 20260506235449 | 17 | 168 | 6.4 | 14.5 | 0.03 | 0.10 | 0.10 | 92 | 1012.7 |
| 20260506235346 | 17 | 159 | 6.4 | 14.5 | 0.03 | 0.10 | 0.10 | 92 | 1012.6 |
| 20260506235241 | 17 | 158 | 6.4 | 14.5 | 0.03 | 0.10 | 0.10 | 92 | 1012.5 |
| 20260506235140 | 17 | 167 | 6.4 | 14.5 | 0.03 | 0.10 | 0.10 | 91 | 1012.4 |
| 20260506235041 | 17 | 147 | 6.4 | 14.5 | 0.03 | 0.10 | 0.10 | 91 | 1012.4 |
| 20260506234941 | 17 | 145 | 6.4 | 14.5 | 0.03 | 0.10 | 0.10 | 91 | 1012.5 |
| 20260506234840 | 17 | 172 | 6.4 | 14.5 | 0.03 | 0.10 | 0.10 | 91 | 1012.5 |
| 20260506234733 | 17 | 141 | 6.4 | 14.5 | 0.03 | 0.10 | 0.10 | 91 | 1012.4 |
| 20260506234631 | 17 | 153 | 4.8 | 12.9 | 0.03 | 0.10 | 0.10 | 91 | 1012.5 |
| 20260506234530 | 17 | 167 | 4.8 | 11.3 | 0.03 | 0.10 | 0.10 | 91 | 1012.5 |
| 20260506234431 | 17 | 183 | 4.8 | 11.3 | 0.03 | 0.10 | 0.10 | 91 | 1012.5 |
| 20260506234331 | 17 | 163 | 6.4 | 17.7 | 0.03 | 0.10 | 0.10 | 91 | 1012.2 |
| 20260506234227 | 17 | 152 | 6.4 | 17.7 | 0.03 | 0.10 | 0.10 | 91 | 1012.3 |
| 20260506234124 | 17 | 158 | 6.4 | 17.7 | 0.03 | 0.10 | 0.10 | 91 | 1012.3 |
| 20260506234024 | 17 | 163 | 6.4 | 17.7 | 0.00 | 0.08 | 0.10 | 91 | 1012.3 |
| 20260506233925 | 17 | 165 | 6.4 | 17.7 | 0.00 | 0.08 | 0.08 | 91 | 1012.2 |
| 20260506233824 | 17 | 152 | 8.0 | 17.7 | 0.00 | 0.08 | 0.08 | 91 | 1012.2 |
| 20260506233720 | 17 | 185 | 8.0 | 17.7 | 0.00 | 0.08 | 0.08 | 91 | 1011.8 |
| 20260506233618 | 17 | 150 | 8.0 | 17.7 | 0.00 | 0.08 | 0.08 | 90 | 1011.7 |
| 20260506233519 | 17 | 142 | 8.0 | 17.7 | 0.00 | 0.08 | 0.08 | 90 | 1011.5 |
| 20260506233419 | 17 | 150 | 8.0 | 17.7 | 0.00 | 0.08 | 0.08 | 90 | 1011.6 |
| 20260506233318 | 17 | 146 | 8.0 | 14.5 | 0.00 | 0.08 | 0.08 | 90 | 1011.8 |
| 20260506233211 | 17 | 153 | 8.0 | 14.5 | 0.00 | 0.08 | 0.08 | 90 | 1011.8 |
| 20260506233108 | 17 | 140 | 6.4 | 14.5 | 0.00 | 0.08 | 0.08 | 90 | 1012.0 |
| 20260506233009 | 17 | 169 | 8.0 | 14.5 | 0.00 | 0.08 | 0.08 | 90 | 1011.8 |
| 20260506232908 | 17 | 157 | 6.4 | 14.5 | 0.00 | 0.08 | 0.08 | 90 | 1011.7 |
| 20260506232809 | 17 | 155 | 8.0 | 14.5 | 0.00 | 0.08 | 0.08 | 90 | 1012.0 |
| 20260506232702 | 17 | 163 | 8.0 | 14.5 | 0.00 | 0.08 | 0.08 | 90 | 1012.0 |
| 20260506232603 | 17 | 163 | 8.0 | 14.5 | 0.00 | 0.08 | 0.08 | 90 | 1012.0 |
| 20260506232504 | 17 | 150 | 8.0 | 16.1 | 0.00 | 0.08 | 0.08 | 90 | 1012.0 |
| 20260506232403 | 17 | 135 | 8.0 | 16.1 | 0.00 | 0.08 | 0.08 | 90 | 1012.1 |
| 20260506232306 | 17 | 155 | 8.0 | 16.1 | 0.00 | 0.08 | 0.08 | 90 | 1012.1 |
| 20260506232157 | 17 | 171 | 8.0 | 17.7 | 0.00 | 0.08 | 0.08 | 90 | 1012.2 |
| 20260506232056 | 17 | 159 | 6.4 | 17.7 | 0.00 | 0.08 | 0.08 | 90 | 1012.1 |
| 20260506231958 | 17 | 156 | 8.0 | 17.7 | 0.00 | 0.08 | 0.08 | 90 | 1012.1 |
| 20260506231856 | 17 | 154 | 6.4 | 17.7 | 0.00 | 0.08 | 0.08 | 90 | 1012.1 |
| 20260506231757 | 17 | 141 | 6.4 | 17.7 | 0.00 | 0.08 | 0.08 | 90 | 1012.1 |
| 20260506231648 | 17 | 148 | 6.4 | 17.7 | 0.00 | 0.08 | 0.08 | 90 | 1012.1 |
| 20260506231549 | 17 | 182 | 6.4 | 19.3 | 0.00 | 0.08 | 0.08 | 90 | 1012.2 |
| 20260506231449 | 17 | 167 | 6.4 | 19.3 | 0.00 | 0.08 | 0.08 | 90 | 1012.2 |
| 20260506231349 | 17 | 186 | 6.4 | 19.3 | 0.00 | 0.08 | 0.08 | 90 | 1012.3 |
| 20260506231246 | 18 | 151 | 6.4 | 19.3 | 0.00 | 0.08 | 0.08 | 90 | 1012.3 |
| 20260506231143 | 18 | 170 | 6.4 | 19.3 | 0.00 | 0.08 | 0.08 | 89 | 1012.2 |
| 20260506230941 | 18 | 180 | 6.4 | 19.3 | 0.00 | 0.08 | 0.08 | 89 | 1012.2 |
| 20260506230842 | 18 | 175 | 6.4 | 19.3 | 0.00 | 0.08 | 0.08 | 89 | 1012.2 |
| 20260506230741 | 18 | 169 | 6.4 | 19.3 | 0.00 | 0.08 | 0.08 | 89 | 1012.2 |
| 20260506230641 | 18 | 107 | 6.4 | 19.3 | 0.00 | 0.08 | 0.08 | 89 | 1012.2 |
| 20260506230539 | 18 | 184 | 6.4 | 12.9 | 0.00 | 0.08 | 0.08 | 89 | 1012.2 |
| 20260506230438 | 18 | 161 | 6.4 | 12.9 | 0.00 | 0.08 | 0.08 | 89 | 1012.1 |
| 20260506230336 | 18 | 150 | 6.4 | 12.9 | 0.00 | 0.08 | 0.08 | 89 | 1012.0 |
| 20260506230235 | 18 | 127 | 6.4 | 12.9 | 0.00 | 0.08 | 0.08 | 89 | 1012.1 |
| 20260506230128 | 18 | 181 | 6.4 | 12.9 | 0.00 | 0.08 | 0.08 | 89 | 1012.1 |
| 20260506230026 | 18 | 136 | 6.4 | 12.9 | 0.00 | 0.08 | 0.08 | 89 | 1012.1 |
| 20260506225927 | 18 | 151 | 6.4 | 12.9 | 0.00 | 0.08 | 0.08 | 89 | 1012.1 |
| 20260506225826 | 18 | 148 | 4.8 | 12.9 | 0.00 | 0.08 | 0.08 | 89 | 1012.2 |
| 20260506225725 | 18 | 187 | 4.8 | 12.9 | 0.00 | 0.08 | 0.08 | 89 | 1012.1 |
| 20260506225621 | 18 | 137 | 4.8 | 11.3 | 0.00 | 0.08 | 0.08 | 89 | 1012.2 |
| 20260506225520 | 18 | 164 | 4.8 | 11.3 | 0.00 | 0.08 | 0.08 | 89 | 1012.0 |
| 20260506225420 | 18 | 161 | 3.2 | 11.3 | 0.00 | 0.08 | 0.08 | 88 | 1012.0 |
| 20260506225318 | 18 | 148 | 3.2 | 11.3 | 0.00 | 0.08 | 0.08 | 88 | 1012.0 |
| 20260506225219 | 18 | 152 | 3.2 | 9.7 | 0.00 | 0.08 | 0.08 | 88 | 1012.1 |
| 20260506225118 | 18 | 154 | 3.2 | 9.7 | 0.00 | 0.08 | 0.08 | 88 | 1012.2 |
| 20260506225018 | 18 | 153 | 3.2 | 9.7 | 0.00 | 0.08 | 0.08 | 88 | 1012.3 |
| 20260506224914 | 18 | 124 | 3.2 | 8.0 | 0.00 | 0.08 | 0.08 | 88 | 1012.2 |
| 20260506224814 | 18 | 104 | 1.6 | 8.0 | 0.00 | 0.08 | 0.08 | 88 | 1012.4 |
| 20260506224713 | 18 | 128 | 1.6 | 8.0 | 0.00 | 0.08 | 0.08 | 88 | 1012.4 |
| 20260506224602 | 18 | 96 | 3.2 | 8.0 | 0.00 | 0.08 | 0.08 | 88 | 1012.4 |
| 20260506224504 | 18 | 96 | 3.2 | 9.7 | 0.00 | 0.08 | 0.08 | 88 | 1012.3 |
| 20260506224403 | 18 | 214 | 1.6 | 9.7 | 0.00 | 0.08 | 0.08 | 88 | 1012.3 |
| 20260506224303 | 18 | 204 | 3.2 | 9.7 | 0.00 | 0.08 | 0.08 | 88 | 1012.3 |
| 20260506224203 | 18 | 176 | 3.2 | 9.7 | 0.00 | 0.08 | 0.08 | 88 | 1012.4 |
| 20260506224100 | 18 | 176 | 3.2 | 9.7 | 0.00 | 0.08 | 0.08 | 88 | 1012.4 |
| 20260506224001 | 18 | 177 | 3.2 | 9.7 | 0.00 | 0.08 | 0.08 | 88 | 1012.3 |
| 20260506223859 | 18 | 178 | 3.2 | 9.7 | 0.00 | 0.08 | 0.08 | 88 | 1012.5 |
| 20260506223759 | 18 | 178 | 3.2 | 9.7 | 0.00 | 0.08 | 0.08 | 88 | 1012.5 |
| 20260506223657 | 18 | 178 | 3.2 | 9.7 | 0.00 | 0.08 | 0.08 | 88 | 1012.5 |
| 20260506223552 | 18 | 178 | 1.6 | 9.7 | 0.00 | 0.08 | 0.08 | 88 | 1012.5 |
| 20260506223450 | 18 | 174 | 1.6 | 8.0 | 0.00 | 0.08 | 0.08 | 87 | 1012.4 |
| 20260506223351 | 18 | 174 | 1.6 | 8.0 | 0.00 | 0.08 | 0.08 | 87 | 1012.5 |
| 20260506223251 | 18 | 175 | 1.6 | 8.0 | 0.00 | 0.08 | 0.08 | 87 | 1012.6 |
| 20260506223150 | 18 | 159 | 1.6 | 8.0 | 0.00 | 0.08 | 0.08 | 87 | 1012.7 |
| 20260506223040 | 18 | 159 | 1.6 | 8.0 | 0.00 | 0.08 | 0.08 | 87 | 1012.8 |
| 20260506222942 | 18 | 156 | 1.6 | 6.4 | 0.00 | 0.08 | 0.08 | 87 | 1012.8 |
| 20260506222841 | 18 | 165 | 1.6 | 6.4 | 0.00 | 0.08 | 0.08 | 87 | 1012.9 |
| 20260506222739 | 18 | 165 | 1.6 | 6.4 | 0.00 | 0.08 | 0.08 | 87 | 1012.9 |
| 20260506222640 | 18 | 167 | 1.6 | 6.4 | 0.00 | 0.08 | 0.08 | 87 | 1013.0 |
| 20260506222536 | 18 | 88 | 1.6 | 4.8 | 0.00 | 0.08 | 0.08 | 87 | 1013.0 |
| 20260506222437 | 18 | 88 | 1.6 | 6.4 | 0.00 | 0.08 | 0.08 | 87 | 1013.0 |
| 20260506222338 | 18 | 86 | 1.6 | 6.4 | 0.00 | 0.08 | 0.08 | 87 | 1012.9 |
| 20260506222237 | 18 | 96 | 1.6 | 6.4 | 0.00 | 0.08 | 0.08 | 87 | 1012.9 |
| 20260506222134 | 18 | 132 | 1.6 | 6.4 | 0.00 | 0.08 | 0.08 | 87 | 1012.8 |
| 20260506222035 | 18 | 132 | 1.6 | 8.0 | 0.00 | 0.08 | 0.08 | 87 | 1012.8 |
| 20260506221932 | 18 | 113 | 1.6 | 8.0 | 0.00 | 0.08 | 0.08 | 87 | 1012.8 |
| 20260506221832 | 18 | 75 | 1.6 | 8.0 | 0.00 | 0.08 | 0.08 | 87 | 1013.0 |
| 20260506221731 | 18 | 225 | 1.6 | 8.0 | 0.00 | 0.08 | 0.08 | 87 | 1012.9 |
| 20260506221629 | 18 | 254 | 3.2 | 8.0 | 0.00 | 0.08 | 0.08 | 86 | 1012.9 |
| 20260506221520 | 18 | 253 | 3.2 | 8.0 | 0.00 | 0.08 | 0.08 | 86 | 1012.9 |
| 20260506221419 | 18 | 198 | 3.2 | 8.0 | 0.00 | 0.08 | 0.08 | 86 | 1012.9 |
| 20260506221319 | 18 | 176 | 3.2 | 8.0 | 0.00 | 0.08 | 0.08 | 86 | 1013.0 |
| 20260506221217 | 18 | 177 | 3.2 | 8.0 | 0.00 | 0.08 | 0.08 | 86 | 1013.0 |
| 20260506221119 | 18 | 180 | 3.2 | 8.0 | 0.00 | 0.08 | 0.08 | 86 | 1013.0 |
| 20260506221014 | 18 | 203 | 3.2 | 8.0 | 0.00 | 0.08 | 0.08 | 86 | 1012.9 |
| 20260506220914 | 18 | 203 | 3.2 | 8.0 | 0.00 | 0.08 | 0.08 | 86 | 1013.0 |
| 20260506220814 | 18 | 180 | 3.2 | 8.0 | 0.00 | 0.08 | 0.08 | 86 | 1013.1 |
| 20260506220714 | 18 | 175 | 1.6 | 8.0 | 0.00 | 0.08 | 0.08 | 86 | 1013.1 |
| 20260506220613 | 18 | 145 | 1.6 | 8.0 | 0.00 | 0.08 | 0.08 | 86 | 1013.2 |
| 20260506220509 | 18 | 181 | 1.6 | 8.0 | 0.00 | 0.08 | 0.08 | 86 | 1013.1 |
| 20260506220406 | 18 | 132 | 1.6 | 6.4 | 0.00 | 0.08 | 0.08 | 86 | 1013.1 |
| 20260506220306 | 18 | 53 | 0.0 | 6.4 | 0.00 | 0.08 | 0.08 | 86 | 1013.2 |
| 20260506220208 | 18 | 153 | 0.0 | 4.8 | 0.00 | 0.08 | 0.08 | 86 | 1013.1 |
| 20260506220105 | 18 | 282 | 1.6 | 6.4 | 0.00 | 0.08 | 0.08 | 86 | 1013.0 |
| 20260506215957 | 18 | 349 | 1.6 | 12.9 | 0.00 | 0.08 | 0.08 | 86 | 1013.0 |
| 20260506215856 | 18 | 355 | 1.6 | 12.9 | 0.00 | 0.08 | 0.08 | 86 | 1013.0 |
| 20260506215756 | 18 | 157 | 1.6 | 12.9 | 0.00 | 0.08 | 0.08 | 86 | 1013.0 |
| 20260506215657 | 18 | 181 | 1.6 | 12.9 | 0.00 | 0.08 | 0.08 | 86 | 1012.9 |
| 20260506215555 | 19 | 136 | 3.2 | 12.9 | 0.00 | 0.08 | 0.08 | 86 | 1013.0 |
| 20260506215451 | 19 | 136 | 3.2 | 12.9 | 0.00 | 0.08 | 0.08 | 86 | 1012.8 |
| 20260506215348 | 19 | 140 | 3.2 | 12.9 | 0.00 | 0.08 | 0.08 | 86 | 1012.9 |
| 20260506215249 | 19 | 142 | 3.2 | 12.9 | 0.00 | 0.08 | 0.08 | 85 | 1012.8 |
| 20260506215148 | 19 | 143 | 4.8 | 12.9 | 0.00 | 0.08 | 0.08 | 85 | 1012.9 |
| 20260506215049 | 19 | 186 | 3.2 | 11.3 | 0.00 | 0.08 | 0.08 | 85 | 1012.9 |
| 20260506214949 | 19 | 182 | 3.2 | 11.3 | 0.00 | 0.08 | 0.08 | 85 | 1012.9 |
| 20260506214847 | 19 | 178 | 3.2 | 11.3 | 0.00 | 0.08 | 0.08 | 85 | 1012.9 |
| 20260506214746 | 19 | 65 | 3.2 | 11.3 | 0.00 | 0.08 | 0.08 | 85 | 1013.0 |
| 20260506214645 | 19 | 168 | 3.2 | 11.3 | 0.00 | 0.08 | 0.08 | 85 | 1013.1 |
| 20260506214542 | 19 | 184 | 3.2 | 11.3 | 0.00 | 0.08 | 0.08 | 85 | 1013.0 |
| 20260506214433 | 19 | 135 | 3.2 | 11.3 | 0.00 | 0.08 | 0.08 | 85 | 1013.0 |
| 20260506214332 | 19 | 194 | 1.6 | 9.7 | 0.00 | 0.08 | 0.08 | 85 | 1013.2 |
| 20260506214233 | 19 | 234 | 1.6 | 9.7 | 0.00 | 0.08 | 0.08 | 85 | 1013.1 |
| 20260506214132 | 19 | 159 | 1.6 | 9.7 | 0.00 | 0.08 | 0.08 | 85 | 1013.1 |
| 20260506214032 | 19 | 175 | 1.6 | 6.4 | 0.00 | 0.08 | 0.08 | 85 | 1013.2 |
| 20260506213933 | 19 | 274 | 1.6 | 6.4 | 0.00 | 0.08 | 0.08 | 85 | 1013.1 |
| 20260506213830 | 19 | 265 | 1.6 | 11.3 | 0.00 | 0.08 | 0.08 | 85 | 1013.1 |
| 20260506213729 | 19 | 138 | 1.6 | 11.3 | 0.00 | 0.08 | 0.08 | 85 | 1013.1 |
| 20260506213629 | 19 | 138 | 3.2 | 11.3 | 0.00 | 0.08 | 0.08 | 85 | 1013.0 |
| 20260506213526 | 19 | 138 | 3.2 | 11.3 | 0.00 | 0.08 | 0.08 | 85 | 1012.9 |
| 20260506213424 | 19 | 138 | 3.2 | 11.3 | 0.00 | 0.08 | 0.08 | 85 | 1012.9 |
| 20260506213324 | 19 | 139 | 3.2 | 12.9 | 0.00 | 0.08 | 0.08 | 85 | 1012.9 |
| 20260506213222 | 19 | 139 | 3.2 | 12.9 | 0.00 | 0.08 | 0.08 | 85 | 1012.7 |
| 20260506213123 | 19 | 139 | 3.2 | 12.9 | 0.00 | 0.08 | 0.08 | 85 | 1012.8 |
| 20260506213020 | 19 | 191 | 3.2 | 12.9 | 0.00 | 0.08 | 0.08 | 85 | 1012.8 |
| 20260506212914 | 19 | 165 | 3.2 | 12.9 | 0.00 | 0.08 | 0.08 | 85 | 1012.7 |
| 20260506212814 | 19 | 140 | 3.2 | 12.9 | 0.00 | 0.08 | 0.08 | 85 | 1012.6 |
| 20260506212714 | 19 | 250 | 3.2 | 12.9 | 0.00 | 0.08 | 0.08 | 85 | 1012.7 |
| 20260506212613 | 19 | 256 | 4.8 | 12.9 | 0.00 | 0.08 | 0.08 | 85 | 1012.8 |
| 20260506212511 | 19 | 256 | 4.8 | 14.5 | 0.00 | 0.08 | 0.08 | 85 | 1012.7 |
| 20260506212404 | 19 | 249 | 4.8 | 14.5 | 0.00 | 0.08 | 0.08 | 85 | 1012.7 |
| 20260506212306 | 19 | 121 | 4.8 | 14.5 | 0.00 | 0.08 | 0.08 | 85 | 1012.6 |
| 20260506212205 | 19 | 205 | 4.8 | 14.5 | 0.00 | 0.08 | 0.08 | 85 | 1012.6 |
| 20260506212104 | 19 | 171 | 4.8 | 14.5 | 0.00 | 0.08 | 0.08 | 85 | 1012.6 |
| 20260506212005 | 19 | 175 | 4.8 | 14.5 | 0.00 | 0.08 | 0.08 | 85 | 1012.6 |
| 20260506211859 | 19 | 175 | 4.8 | 14.5 | 0.00 | 0.08 | 0.08 | 85 | 1012.6 |
| 20260506211758 | 19 | 178 | 4.8 | 14.5 | 0.00 | 0.08 | 0.08 | 85 | 1012.6 |
| 20260506211659 | 19 | 121 | 4.8 | 14.5 | 0.00 | 0.08 | 0.08 | 85 | 1012.5 |
| 20260506211558 | 19 | 169 | 4.8 | 14.5 | 0.00 | 0.08 | 0.08 | 86 | 1012.5 |
| 20260506211459 | 19 | 148 | 4.8 | 12.9 | 0.00 | 0.08 | 0.08 | 86 | 1012.5 |
| 20260506211349 | 19 | 126 | 4.8 | 14.5 | 0.00 | 0.08 | 0.08 | 86 | 1012.4 |
| 20260506211249 | 19 | 186 | 4.8 | 14.5 | 0.00 | 0.08 | 0.08 | 86 | 1012.4 |
| 20260506211148 | 19 | 186 | 4.8 | 14.5 | 0.00 | 0.08 | 0.08 | 86 | 1012.4 |
| 20260506211048 | 19 | 141 | 6.4 | 17.7 | 0.00 | 0.08 | 0.08 | 86 | 1012.4 |
| 20260506210949 | 19 | 173 | 6.4 | 19.3 | 0.00 | 0.08 | 0.08 | 86 | 1012.3 |
| 20260506210842 | 19 | 173 | 8.0 | 19.3 | 0.00 | 0.08 | 0.08 | 86 | 1012.3 |
| 20260506210742 | 19 | 176 | 8.0 | 19.3 | 0.00 | 0.08 | 0.08 | 85 | 1012.3 |
| 20260506210643 | 19 | 202 | 8.0 | 19.3 | 0.00 | 0.08 | 0.08 | 85 | 1012.2 |
| 20260506210542 | 19 | 156 | 8.0 | 19.3 | 0.00 | 0.08 | 0.08 | 85 | 1012.0 |
| 20260506210442 | 19 | 129 | 8.0 | 19.3 | 0.00 | 0.08 | 0.08 | 85 | 1012.0 |
| 20260506210339 | 19 | 117 | 6.4 | 19.3 | 0.00 | 0.08 | 0.08 | 85 | 1012.0 |
| 20260506210236 | 19 | 190 | 6.4 | 19.3 | 0.00 | 0.08 | 0.08 | 85 | 1012.0 |
| 20260506210137 | 19 | 155 | 6.4 | 19.3 | 0.00 | 0.08 | 0.08 | 85 | 1012.2 |
| 20260506210036 | 19 | 139 | 4.8 | 19.3 | 0.00 | 0.08 | 0.08 | 85 | 1012.2 |
| 20260506205938 | 19 | 190 | 3.2 | 12.9 | 0.00 | 0.08 | 0.08 | 85 | 1012.1 |
| 20260506205827 | 19 | 184 | 3.2 | 12.9 | 0.00 | 0.08 | 0.08 | 85 | 1012.2 |
| 20260506205725 | 19 | 246 | 1.6 | 12.9 | 0.00 | 0.08 | 0.08 | 85 | 1011.8 |
| 20260506205626 | 19 | 180 | 1.6 | 11.3 | 0.00 | 0.08 | 0.08 | 85 | 1011.8 |
| 20260506205528 | 19 | 151 | 0.0 | 11.3 | 0.00 | 0.08 | 0.08 | 85 | 1011.7 |
| 20260506205426 | 19 | 128 | 0.0 | 1.6 | 0.00 | 0.08 | 0.08 | 85 | 1011.7 |
| 20260506205320 | 20 | 199 | 0.0 | 0.0 | 0.00 | 0.08 | 0.08 | 84 | 1011.7 |
| 20260506205221 | 20 | 165 | 0.0 | 0.0 | 0.00 | 0.08 | 0.08 | 84 | 1011.7 |
| 20260506205121 | 20 | 168 | 0.0 | 0.0 | 0.00 | 0.08 | 0.08 | 84 | 1011.6 |
| 20260506205021 | 20 | 138 | 0.0 | 0.0 | 0.00 | 0.08 | 0.08 | 84 | 1011.6 |
| 20260506204921 | 20 | 132 | 0.0 | 0.0 | 0.00 | 0.08 | 0.08 | 84 | 1011.7 |
| 20260506204815 | 20 | 190 | 0.0 | 0.0 | 0.00 | 0.08 | 0.08 | 84 | 1011.7 |
| 20260506204714 | 20 | 188 | 0.0 | 0.0 | 0.00 | 0.08 | 0.08 | 84 | 1011.5 |
| 20260506204615 | 20 | 164 | 0.0 | 0.0 | 0.00 | 0.08 | 0.08 | 84 | 1011.5 |
| 20260506204514 | 20 | 201 | 0.0 | 0.0 | 0.00 | 0.08 | 0.08 | 84 | 1011.4 |
| 20260506204415 | 20 | 114 | 0.0 | 0.0 | 0.00 | 0.08 | 0.08 | 84 | 1011.6 |
| 20260506204304 | 20 | 165 | 0.0 | 0.0 | 0.00 | 0.08 | 0.08 | 84 | 1011.6 |
| 20260506204205 | 20 | 171 | 0.0 | 0.0 | 0.00 | 0.08 | 0.08 | 84 | 1012.0 |
| 20260506204105 | 20 | 161 | 0.0 | 0.0 | 0.00 | 0.08 | 0.08 | 84 | 1011.8 |
| 20260506204003 | 20 | 165 | 0.0 | 0.0 | 0.00 | 0.08 | 0.08 | 84 | 1011.8 |
| 20260506203904 | 20 | 186 | 0.0 | 0.0 | 0.00 | 0.08 | 0.08 | 85 | 1012.1 |
| 20260506203801 | 20 | 233 | 0.0 | 0.0 | 0.00 | 0.08 | 0.08 | 84 | 1012.1 |
| 20260506203658 | 20 | 186 | 0.0 | 0.0 | 0.00 | 0.08 | 0.08 | 84 | 1012.0 |
| 20260506203559 | 20 | 178 | 0.0 | 0.0 | 0.00 | 0.08 | 0.08 | 84 | 1012.0 |
| 20260506203457 | 20 | 195 | 0.0 | 0.0 | 0.00 | 0.08 | 0.08 | 84 | 1012.1 |
| 20260506203359 | 20 | 146 | 0.0 | 0.0 | 0.00 | 0.08 | 0.08 | 84 | 1012.0 |
| 20260506203252 | 20 | 139 | 0.0 | 0.0 | 0.00 | 0.08 | 0.08 | 84 | 1012.1 |
| 20260506203153 | 20 | 161 | 0.0 | 0.0 | 0.00 | 0.08 | 0.08 | 84 | 1012.1 |
| 20260506203053 | 20 | 155 | 0.0 | 0.0 | 0.00 | 0.08 | 0.08 | 84 | 1012.1 |
| 20260506202952 | 20 | 111 | 0.0 | 0.0 | 0.00 | 0.08 | 0.08 | 84 | 1012.2 |
| 20260506202853 | 20 | 132 | 0.0 | 0.0 | 0.00 | 0.08 | 0.08 | 84 | 1012.3 |
| 20260506202743 | 20 | 245 | 0.0 | 0.0 | 0.00 | 0.08 | 0.08 | 84 | 1012.2 |
| 20260506202642 | 20 | 145 | 0.0 | 0.0 | 0.00 | 0.08 | 0.08 | 84 | 1012.3 |
| 20260506202543 | 20 | 165 | 0.0 | 0.0 | 0.00 | 0.08 | 0.08 | 84 | 1012.4 |
| 20260506202442 | 20 | 142 | 0.0 | 0.0 | 0.00 | 0.08 | 0.08 | 84 | 1012.6 |
| 20260506202343 | 20 | 167 | 0.0 | 0.0 | 0.00 | 0.08 | 0.08 | 84 | 1012.6 |
| 20260506202238 | 20 | 180 | 0.0 | 0.0 | 0.00 | 0.08 | 0.08 | 85 | 1012.6 |
| 20260506202137 | 20 | 215 | 0.0 | 0.0 | 0.00 | 0.08 | 0.08 | 85 | 1012.7 |
| 20260506202035 | 20 | 197 | 0.0 | 0.0 | 0.00 | 0.08 | 0.08 | 85 | 1012.7 |
| 20260506201936 | 20 | 159 | 0.0 | 0.0 | 0.00 | 0.08 | 0.08 | 85 | 1012.7 |
| 20260506201837 | 20 | 192 | 0.0 | 0.0 | 0.00 | 0.08 | 0.08 | 85 | 1012.7 |
| 20260506201730 | 19 | 183 | 0.0 | 0.0 | 0.00 | 0.08 | 0.08 | 85 | 1012.8 |
| 20260506201630 | 19 | 115 | 0.0 | 0.0 | 0.00 | 0.08 | 0.08 | 84 | 1012.8 |
| 20260506201531 | 19 | 179 | 0.0 | 0.0 | 0.00 | 0.08 | 0.08 | 85 | 1012.7 |
| 20260506201430 | 19 | 106 | 0.0 | 0.0 | 0.00 | 0.08 | 0.08 | 85 | 1012.7 |
| 20260506201331 | 19 | 169 | 0.0 | 0.0 | 0.00 | 0.08 | 0.08 | 85 | 1012.7 |
| 20260506201222 | 19 | 168 | 0.0 | 0.0 | 0.00 | 0.08 | 0.08 | 85 | 1012.7 |
| 20260506201121 | 19 | 99 | 0.0 | 0.0 | 0.00 | 0.08 | 0.08 | 85 | 1012.6 |
| 20260506201021 | 19 | 135 | 0.0 | 0.0 | 0.00 | 0.08 | 0.08 | 85 | 1012.6 |
| 20260506200920 | 19 | 189 | 0.0 | 0.0 | 0.00 | 0.08 | 0.08 | 85 | 1012.6 |
| 20260506200821 | 19 | 136 | 0.0 | 0.0 | 0.00 | 0.08 | 0.08 | 85 | 1012.5 |
| 20260506200717 | 19 | 170 | 0.0 | 0.0 | 0.00 | 0.08 | 0.08 | 86 | 1012.6 |
| 20260506200615 | 19 | 178 | 0.0 | 0.0 | 0.00 | 0.08 | 0.08 | 86 | 1012.6 |
| 20260506200513 | 19 | 229 | 0.0 | 0.0 | 0.00 | 0.08 | 0.08 | 86 | 1012.6 |
| 20260506200414 | 19 | 182 | 0.0 | 0.0 | 0.00 | 0.08 | 0.08 | 86 | 1012.7 |
| 20260506200315 | 19 | 171 | 0.0 | 0.0 | 0.00 | 0.08 | 0.08 | 85 | 1012.8 |
| 20260506200211 | 19 | 218 | 0.0 | 0.0 | 0.00 | 0.08 | 0.08 | 85 | 1012.7 |
| 20260506200109 | 19 | 248 | 0.0 | 0.0 | 0.00 | 0.08 | 0.08 | 86 | 1012.7 |
| 20260506200010 | 19 | 175 | 0.0 | 0.0 | 0.00 | 0.08 | 0.08 | 86 | 1012.7 |
| 20260506195907 | 19 | 164 | 0.0 | 0.0 | 0.00 | 0.08 | 0.08 | 86 | 1012.7 |
| 20260506195808 | 19 | 203 | 0.0 | 0.0 | 0.00 | 0.08 | 0.08 | 86 | 1012.8 |
| 20260506195701 | 19 | 218 | 0.0 | 0.0 | 0.00 | 0.08 | 0.08 | 86 | 1012.7 |
| 20260506195558 | 19 | 207 | 0.0 | 0.0 | 0.00 | 0.08 | 0.08 | 85 | 1012.8 |
| 20260506195459 | 19 | 163 | 0.0 | 0.0 | 0.00 | 0.08 | 0.08 | 85 | 1012.8 |
| 20260506195358 | 19 | 271 | 0.0 | 0.0 | 0.00 | 0.08 | 0.08 | 85 | 1012.9 |
| 20260506195258 | 19 | 155 | 0.0 | 0.0 | 0.00 | 0.08 | 0.08 | 86 | 1013.0 |
| 20260506195152 | 19 | 151 | 0.0 | 0.0 | 0.00 | 0.08 | 0.08 | 86 | 1013.1 |
| 20260506195052 | 19 | 156 | 0.0 | 0.0 | 0.00 | 0.08 | 0.08 | 86 | 1013.1 |
| 20260506194953 | 19 | 57 | 0.0 | 0.0 | 0.00 | 0.08 | 0.08 | 86 | 1013.2 |
| 20260506194852 | 19 | 178 | 0.0 | 0.0 | 0.00 | 0.08 | 0.08 | 86 | 1013.1 |
| 20260506194753 | 19 | 166 | 0.0 | 0.0 | 0.00 | 0.08 | 0.08 | 87 | 1013.1 |
| 20260506194649 | 19 | 149 | 0.0 | 0.0 | 0.00 | 0.08 | 0.08 | 86 | 1013.0 |
| 20260506194548 | 19 | 322 | 0.0 | 0.0 | 0.00 | 0.08 | 0.08 | 86 | 1013.0 |
| 20260506194447 | 19 | 130 | 0.0 | 0.0 | 0.00 | 0.08 | 0.08 | 87 | 1013.0 |
| 20260506194349 | 19 | 131 | 0.0 | 0.0 | 0.00 | 0.08 | 0.08 | 86 | 1012.9 |
| 20260506194246 | 19 | 194 | 0.0 | 0.0 | 0.00 | 0.08 | 0.08 | 87 | 1012.9 |
| 20260506194139 | 19 | 192 | 0.0 | 0.0 | 0.00 | 0.08 | 0.08 | 87 | 1012.9 |
| 20260506194036 | 19 | 150 | 0.0 | 0.0 | 0.00 | 0.08 | 0.08 | 87 | 1012.9 |
| 20260506193937 | 19 | 180 | 0.0 | 0.0 | 0.00 | 0.08 | 0.08 | 87 | 1013.0 |
| 20260506193836 | 19 | 142 | 0.0 | 0.0 | 0.00 | 0.08 | 0.08 | 87 | 1012.9 |
| 20260506193737 | 18 | 150 | 0.0 | 0.0 | 0.00 | 0.08 | 0.08 | 87 | 1012.9 |
| 20260506193634 | 19 | 166 | 0.0 | 0.0 | 0.00 | 0.08 | 0.08 | 87 | 1012.9 |
| 20260506193534 | 19 | 147 | 0.0 | 0.0 | 0.00 | 0.08 | 0.08 | 87 | 1012.8 |
| 20260506193436 | 18 | 146 | 0.0 | 0.0 | 0.00 | 0.08 | 0.08 | 87 | 1012.8 |
| 20260506193332 | 18 | 134 | 0.0 | 0.0 | 0.00 | 0.08 | 0.08 | 87 | 1012.8 |
| 20260506193230 | 18 | 180 | 0.0 | 0.0 | 0.00 | 0.08 | 0.08 | 87 | 1012.6 |
| 20260506193129 | 18 | 136 | 0.0 | 0.0 | 0.00 | 0.08 | 0.08 | 87 | 1012.7 |
| 20260506193029 | 18 | 178 | 0.0 | 0.0 | 0.00 | 0.08 | 0.08 | 86 | 1012.6 |
| 20260506192928 | 18 | 202 | 0.0 | 0.0 | 0.00 | 0.08 | 0.08 | 87 | 1012.6 |
| 20260506192826 | 18 | 137 | 0.0 | 0.0 | 0.00 | 0.08 | 0.08 | 86 | 1012.6 |
| 20260506192725 | 18 | 161 | 0.0 | 0.0 | 0.00 | 0.08 | 0.08 | 86 | 1012.6 |
| 20260506192615 | 18 | 165 | 0.0 | 0.0 | 0.00 | 0.08 | 0.08 | 86 | 1012.6 |
| 20260506192514 | 18 | 195 | 0.0 | 0.0 | 0.00 | 0.08 | 0.08 | 86 | 1012.7 |
| 20260506192414 | 18 | 123 | 0.0 | 0.0 | 0.00 | 0.08 | 0.08 | 86 | 1012.6 |
| 20260506192315 | 18 | 24 | 0.0 | 0.0 | 0.00 | 0.08 | 0.08 | 86 | 1012.5 |
| 20260506192215 | 18 | 155 | 0.0 | 0.0 | 0.00 | 0.08 | 0.08 | 86 | 1012.5 |
| 20260506192107 | 18 | 198 | 0.0 | 0.0 | 0.00 | 0.08 | 0.08 | 86 | 1012.5 |
| 20260506192008 | 18 | 150 | 0.0 | 0.0 | 0.00 | 0.08 | 0.08 | 87 | 1012.6 |
| 20260506191909 | 18 | 313 | 0.0 | 0.0 | 0.00 | 0.08 | 0.08 | 86 | 1012.6 |
| 20260506191809 | 18 | 149 | 0.0 | 0.0 | 0.00 | 0.08 | 0.08 | 86 | 1012.5 |
| 20260506191709 | 18 | 180 | 0.0 | 0.0 | 0.00 | 0.08 | 0.08 | 86 | 1012.4 |
| 20260506191603 | 18 | 144 | 0.0 | 0.0 | 0.00 | 0.08 | 0.08 | 86 | 1012.4 |
| 20260506191502 | 18 | 155 | 0.0 | 0.0 | 0.00 | 0.08 | 0.08 | 86 | 1012.4 |
| 20260506191402 | 18 | 127 | 0.0 | 0.0 | 0.00 | 0.08 | 0.08 | 86 | 1012.4 |
| 20260506191302 | 18 | 142 | 0.0 | 0.0 | 0.00 | 0.08 | 0.08 | 85 | 1012.5 |
| 20260506191202 | 18 | 178 | 0.0 | 0.0 | 0.00 | 0.08 | 0.08 | 85 | 1012.4 |
| 20260506191052 | 18 | 149 | 0.0 | 0.0 | 0.00 | 0.08 | 0.08 | 85 | 1012.5 |
| 20260506190953 | 18 | 90 | 0.0 | 0.0 | 0.00 | 0.08 | 0.08 | 86 | 1012.6 |
| 20260506190852 | 18 | 193 | 0.0 | 0.0 | 0.00 | 0.08 | 0.08 | 86 | 1012.7 |
| 20260506190752 | 18 | 173 | 0.0 | 0.0 | 0.00 | 0.08 | 0.08 | 86 | 1012.8 |
| 20260506190653 | 18 | 158 | 0.0 | 0.0 | 0.00 | 0.08 | 0.08 | 86 | 1012.8 |
| 20260506190549 | 18 | 101 | 0.0 | 0.0 | 0.00 | 0.08 | 0.08 | 86 | 1012.9 |
| 20260506190448 | 18 | 139 | 0.0 | 0.0 | 0.00 | 0.08 | 0.08 | 86 | 1012.9 |
| 20260506190347 | 18 | 184 | 0.0 | 0.0 | 0.00 | 0.08 | 0.08 | 87 | 1012.9 |
| 20260506190249 | 18 | 177 | 0.0 | 0.0 | 0.00 | 0.08 | 0.08 | 86 | 1012.9 |
| 20260506190146 | 18 | 221 | 0.0 | 0.0 | 0.00 | 0.08 | 0.08 | 87 | 1012.9 |
| 20260506190043 | 18 | 131 | 0.0 | 0.0 | 0.00 | 0.08 | 0.08 | 87 | 1012.9 |
| 20260506185939 | 18 | 196 | 0.0 | 0.0 | 0.00 | 0.08 | 0.08 | 87 | 1012.9 |
| 20260506185841 | 18 | 157 | 0.0 | 0.0 | 0.00 | 0.08 | 0.08 | 87 | 1012.9 |
| 20260506185741 | 18 | 120 | 0.0 | 0.0 | 0.00 | 0.08 | 0.08 | 87 | 1012.8 |
| 20260506185641 | 18 | 144 | 0.0 | 0.0 | 0.00 | 0.08 | 0.08 | 87 | 1012.6 |
| 20260506185531 | 18 | 166 | 0.0 | 0.0 | 0.00 | 0.08 | 0.08 | 87 | 1012.7 |
| 20260506185430 | 18 | 133 | 0.0 | 0.0 | 0.00 | 0.08 | 0.08 | 87 | 1012.7 |
| 20260506185331 | 18 | 170 | 0.0 | 0.0 | 0.00 | 0.08 | 0.08 | 87 | 1012.7 |
| 20260506185229 | 18 | 146 | 0.0 | 0.0 | 0.00 | 0.08 | 0.08 | 88 | 1012.6 |
| 20260506185131 | 18 | 150 | 0.0 | 0.0 | 0.00 | 0.08 | 0.08 | 88 | 1012.6 |
| 20260506185027 | 18 | 138 | 0.0 | 0.0 | 0.00 | 0.08 | 0.08 | 88 | 1012.6 |
| 20260506184925 | 18 | 171 | 0.0 | 0.0 | 0.00 | 0.08 | 0.08 | 88 | 1012.6 |
| 20260506184824 | 18 | 171 | 0.0 | 0.0 | 0.00 | 0.08 | 0.08 | 87 | 1012.6 |
| 20260506184723 | 18 | 157 | 0.0 | 0.0 | 0.00 | 0.08 | 0.08 | 87 | 1012.6 |
| 20260506184625 | 18 | 158 | 0.0 | 1.6 | 0.00 | 0.08 | 0.08 | 88 | 1012.6 |
| 20260506184519 | 18 | 175 | 0.0 | 1.6 | 0.00 | 0.08 | 0.08 | 88 | 1012.5 |
| 20260506184418 | 18 | 146 | 0.0 | 8.0 | 0.00 | 0.08 | 0.08 | 87 | 1012.5 |
| 20260506184318 | 18 | 192 | 0.0 | 8.0 | 0.00 | 0.08 | 0.08 | 88 | 1012.5 |
| 20260506184217 | 18 | 178 | 0.0 | 8.0 | 0.00 | 0.08 | 0.08 | 88 | 1012.6 |
| 20260506184119 | 18 | 164 | 0.0 | 8.0 | 0.00 | 0.08 | 0.08 | 88 | 1012.4 |
| 20260506184008 | 18 | 131 | 0.0 | 8.0 | 0.00 | 0.08 | 0.08 | 88 | 1012.4 |
| 20260506183908 | 18 | 148 | 0.0 | 8.0 | 0.00 | 0.08 | 0.08 | 88 | 1012.5 |
| 20260506183809 | 18 | 138 | 0.0 | 8.0 | 0.00 | 0.08 | 0.08 | 88 | 1012.5 |
| 20260506183709 | 18 | 210 | 0.0 | 8.0 | 0.00 | 0.08 | 0.08 | 89 | 1012.5 |
| 20260506183608 | 18 | 111 | 0.0 | 8.0 | 0.00 | 0.08 | 0.08 | 89 | 1012.5 |
| 20260506183503 | 18 | 180 | 0.0 | 8.0 | 0.00 | 0.08 | 0.08 | 88 | 1012.5 |
| 20260506183402 | 18 | 168 | 0.0 | 4.8 | 0.00 | 0.08 | 0.08 | 88 | 1012.4 |
| 20260506183303 | 18 | 110 | 0.0 | 4.8 | 0.00 | 0.08 | 0.08 | 88 | 1012.5 |
| 20260506183202 | 18 | 183 | 0.0 | 4.8 | 0.00 | 0.08 | 0.08 | 88 | 1012.5 |
| 20260506183103 | 18 | 169 | 0.0 | 4.8 | 0.00 | 0.08 | 0.08 | 88 | 1012.5 |
| 20260506182958 | 18 | 183 | 0.0 | 4.8 | 0.00 | 0.08 | 0.08 | 88 | 1012.5 |
| 20260506182855 | 18 | 205 | 0.0 | 4.8 | 0.00 | 0.08 | 0.08 | 88 | 1012.6 |
| 20260506182756 | 18 | 146 | 0.0 | 4.8 | 0.00 | 0.08 | 0.08 | 88 | 1012.6 |
| 20260506182656 | 18 | 126 | 0.0 | 4.8 | 0.00 | 0.08 | 0.08 | 88 | 1012.5 |
| 20260506182557 | 18 | 178 | 0.0 | 4.8 | 0.00 | 0.08 | 0.08 | 87 | 1012.7 |
| 20260506182447 | 18 | 187 | 0.0 | 3.2 | 0.00 | 0.08 | 0.08 | 87 | 1012.6 |
| 20260506182346 | 18 | 267 | 0.0 | 3.2 | 0.00 | 0.08 | 0.08 | 87 | 1012.6 |
| 20260506182246 | 18 | 207 | 0.0 | 3.2 | 0.00 | 0.08 | 0.08 | 88 | 1012.5 |
| 20260506182146 | 18 | 159 | 0.0 | 3.2 | 0.00 | 0.08 | 0.08 | 88 | 1012.5 |
| 20260506182046 | 18 | 184 | 0.0 | 3.2 | 0.00 | 0.08 | 0.08 | 88 | 1012.5 |
| 20260506181939 | 18 | 203 | 0.0 | 3.2 | 0.00 | 0.08 | 0.08 | 88 | 1012.6 |
| 20260506181841 | 18 | 136 | 0.0 | 3.2 | 0.00 | 0.08 | 0.08 | 87 | 1012.7 |
| 20260506181739 | 18 | 152 | 0.0 | 1.6 | 0.00 | 0.08 | 0.08 | 87 | 1012.7 |
| 20260506181641 | 18 | 152 | 0.0 | 1.6 | 0.00 | 0.08 | 0.08 | 87 | 1012.7 |
| 20260506181541 | 18 | 146 | 0.0 | 1.6 | 0.00 | 0.08 | 0.08 | 87 | 1012.6 |
| 20260506181433 | 18 | 146 | 0.0 | 1.6 | 0.00 | 0.08 | 0.08 | 87 | 1012.8 |
| 20260506181334 | 18 | 138 | 0.0 | 1.6 | 0.00 | 0.08 | 0.08 | 87 | 1012.8 |
| 20260506181233 | 18 | 163 | 0.0 | 1.6 | 0.00 | 0.08 | 0.08 | 87 | 1012.8 |
| 20260506181135 | 18 | 169 | 0.0 | 1.6 | 0.00 | 0.08 | 0.08 | 87 | 1012.8 |
| 20260506181035 | 18 | 139 | 0.0 | 1.6 | 0.03 | 0.08 | 0.08 | 87 | 1012.8 |
| 20260506180931 | 18 | 139 | 0.0 | 1.6 | 0.03 | 0.08 | 0.08 | 87 | 1012.8 |
| 20260506180827 | 18 | 132 | 0.0 | 0.0 | 0.03 | 0.08 | 0.08 | 87 | 1012.9 |
| 20260506180729 | 18 | 138 | 0.0 | 0.0 | 0.03 | 0.08 | 0.08 | 87 | 1012.9 |
| 20260506180625 | 18 | 131 | 0.0 | 0.0 | 0.03 | 0.08 | 0.08 | 87 | 1012.9 |
| 20260506180524 | 18 | 157 | 0.0 | 1.6 | 0.03 | 0.08 | 0.08 | 87 | 1012.9 |
| 20260506180418 | 18 | 184 | 0.0 | 1.6 | 0.03 | 0.08 | 0.08 | 87 | 1012.9 |
| 20260506180318 | 18 | 209 | 0.0 | 1.6 | 0.03 | 0.08 | 0.08 | 87 | 1013.0 |
| 20260506180219 | 18 | 124 | 0.0 | 1.6 | 0.03 | 0.08 | 0.08 | 86 | 1012.9 |
| 20260506180118 | 18 | 139 | 0.0 | 1.6 | 0.03 | 0.08 | 0.08 | 86 | 1012.8 |
| 20260506180019 | 18 | 134 | 0.0 | 1.6 | 0.03 | 0.08 | 0.08 | 86 | 1012.8 |
| 20260506175914 | 18 | 178 | 0.0 | 1.6 | 0.03 | 0.08 | 0.08 | 87 | 1012.7 |
| 20260506175815 | 18 | 162 | 0.0 | 1.6 | 0.05 | 0.08 | 0.08 | 87 | 1012.8 |
| 20260506175714 | 18 | 138 | 0.0 | 1.6 | 0.05 | 0.08 | 0.08 | 87 | 1012.8 |
| 20260506175613 | 18 | 192 | 0.0 | 1.6 | 0.05 | 0.08 | 0.08 | 87 | 1012.9 |
| 20260506175513 | 18 | 166 | 0.0 | 1.6 | 0.05 | 0.08 | 0.08 | 87 | 1013.1 |
| 20260506175404 | 18 | 172 | 0.0 | 3.2 | 0.05 | 0.08 | 0.08 | 87 | 1013.0 |
| 20260506175306 | 18 | 173 | 0.0 | 6.4 | 0.05 | 0.08 | 0.08 | 87 | 1013.0 |
| 20260506175204 | 18 | 173 | 0.0 | 6.4 | 0.05 | 0.08 | 0.08 | 88 | 1013.1 |
| 20260506175105 | 18 | 221 | 0.0 | 6.4 | 0.05 | 0.08 | 0.08 | 88 | 1012.8 |
| 20260506175004 | 18 | 180 | 1.6 | 9.7 | 0.05 | 0.08 | 0.08 | 88 | 1012.8 |
| 20260506174904 | 18 | 123 | 3.2 | 12.9 | 0.05 | 0.08 | 0.08 | 89 | 1012.9 |
| 20260506174805 | 18 | 130 | 3.2 | 14.5 | 0.05 | 0.08 | 0.08 | 90 | 1012.9 |
| 20260506174703 | 18 | 158 | 3.2 | 14.5 | 0.05 | 0.08 | 0.08 | 90 | 1013.0 |
| 20260506174605 | 18 | 130 | 4.8 | 14.5 | 0.05 | 0.08 | 0.08 | 90 | 1012.9 |
| 20260506174504 | 17 | 198 | 6.4 | 14.5 | 0.05 | 0.08 | 0.08 | 90 | 1012.9 |
| 20260506174405 | 17 | 209 | 6.4 | 14.5 | 0.05 | 0.08 | 0.08 | 89 | 1012.9 |
| 20260506174304 | 17 | 129 | 8.0 | 14.5 | 0.05 | 0.08 | 0.08 | 90 | 1012.9 |
| 20260506174203 | 17 | 143 | 8.0 | 14.5 | 0.05 | 0.08 | 0.08 | 90 | 1012.9 |
| 20260506174104 | 17 | 124 | 8.0 | 14.5 | 0.05 | 0.08 | 0.08 | 90 | 1012.8 |
| 20260506174004 | 17 | 167 | 8.0 | 14.5 | 0.05 | 0.08 | 0.08 | 91 | 1012.8 |
| 20260506173904 | 17 | 159 | 6.4 | 14.5 | 0.05 | 0.08 | 0.08 | 91 | 1012.8 |
| 20260506173805 | 17 | 171 | 6.4 | 14.5 | 0.05 | 0.08 | 0.08 | 91 | 1012.6 |
| 20260506173700 | 17 | 159 | 6.4 | 14.5 | 0.05 | 0.08 | 0.08 | 91 | 1012.7 |
| 20260506173559 | 16 | 165 | 6.4 | 14.5 | 0.05 | 0.08 | 0.08 | 91 | 1012.8 |
| 20260506173459 | 16 | 96 | 6.4 | 14.5 | 0.08 | 0.08 | 0.08 | 91 | 1012.8 |
| 20260506173400 | 16 | 171 | 4.8 | 16.1 | 0.08 | 0.08 | 0.08 | 91 | 1012.9 |
| 20260506173300 | 16 | 115 | 4.8 | 16.1 | 0.08 | 0.08 | 0.08 | 91 | 1013.0 |
| 20260506173200 | 16 | 85 | 4.8 | 16.1 | 0.08 | 0.08 | 0.08 | 91 | 1013.1 |
| 20260506173101 | 16 | 150 | 6.4 | 16.1 | 0.08 | 0.08 | 0.08 | 91 | 1013.2 |
| 20260506172959 | 16 | 167 | 6.4 | 17.7 | 0.08 | 0.08 | 0.08 | 91 | 1013.2 |
| 20260506172901 | 16 | 155 | 6.4 | 17.7 | 0.08 | 0.08 | 0.08 | 91 | 1013.2 |
| 20260506172800 | 16 | 157 | 6.4 | 17.7 | 0.08 | 0.08 | 0.08 | 91 | 1013.3 |
| 20260506172701 | 16 | 166 | 6.4 | 17.7 | 0.08 | 0.08 | 0.08 | 90 | 1013.4 |
| 20260506172600 | 16 | 238 | 8.0 | 17.7 | 0.08 | 0.08 | 0.08 | 91 | 1013.4 |
| 20260506172500 | 16 | 154 | 6.4 | 17.7 | 0.08 | 0.08 | 0.08 | 91 | 1013.5 |
| 20260506172400 | 16 | 155 | 6.4 | 17.7 | 0.08 | 0.08 | 0.08 | 91 | 1013.7 |
| 20260506172301 | 16 | 143 | 6.4 | 17.7 | 0.08 | 0.08 | 0.08 | 90 | 1013.7 |
| 20260506172201 | 16 | 207 | 6.4 | 17.7 | 0.08 | 0.08 | 0.08 | 90 | 1013.7 |
| 20260506172101 | 16 | 287 | 6.4 | 17.7 | 0.08 | 0.08 | 0.08 | 90 | 1013.8 |
| 20260506172001 | 16 | 175 | 8.0 | 17.7 | 0.08 | 0.08 | 0.08 | 90 | 1013.9 |
| 20260506171900 | 16 | 174 | 6.4 | 17.7 | 0.08 | 0.08 | 0.08 | 90 | 1013.8 |
| 20260506171800 | 16 | 133 | 6.4 | 17.7 | 0.08 | 0.08 | 0.08 | 90 | 1013.9 |
| 20260506171659 | 16 | 155 | 6.4 | 17.7 | 0.08 | 0.08 | 0.08 | 90 | 1013.9 |
| 20260506171557 | 16 | 144 | 6.4 | 17.7 | 0.08 | 0.08 | 0.08 | 90 | 1014.0 |
| 20260506171458 | 16 | 143 | 8.0 | 17.7 | 0.08 | 0.08 | 0.08 | 90 | 1014.1 |
| 20260506171359 | 16 | 162 | 8.0 | 17.7 | 0.08 | 0.08 | 0.08 | 90 | 1014.1 |
| 20260506171258 | 16 | 160 | 8.0 | 19.3 | 0.08 | 0.08 | 0.08 | 90 | 1014.2 |
| 20260506171157 | 16 | 140 | 8.0 | 19.3 | 0.08 | 0.08 | 0.08 | 90 | 1014.2 |
| 20260506171057 | 16 | 132 | 8.0 | 20.9 | 0.05 | 0.05 | 0.08 | 90 | 1014.3 |
| 20260506170958 | 16 | 185 | 6.4 | 20.9 | 0.05 | 0.05 | 0.05 | 90 | 1014.3 |
| 20260506170857 | 16 | 185 | 6.4 | 20.9 | 0.05 | 0.05 | 0.05 | 90 | 1014.4 |
| 20260506170759 | 16 | 148 | 6.4 | 20.9 | 0.05 | 0.05 | 0.05 | 90 | 1014.5 |
| 20260506170656 | 16 | 148 | 6.4 | 20.9 | 0.05 | 0.05 | 0.05 | 90 | 1014.5 |
| 20260506170556 | 16 | 105 | 6.4 | 20.9 | 0.05 | 0.05 | 0.05 | 90 | 1014.6 |
| 20260506170456 | 16 | 167 | 6.4 | 20.9 | 0.05 | 0.05 | 0.05 | 89 | 1014.6 |
| 20260506170357 | 16 | 200 | 4.8 | 20.9 | 0.05 | 0.05 | 0.05 | 89 | 1014.5 |
| 20260506170249 | 16 | 150 | 4.8 | 20.9 | 0.05 | 0.05 | 0.05 | 89 | 1014.4 |
| 20260506170149 | 16 | 165 | 4.8 | 20.9 | 0.05 | 0.05 | 0.05 | 90 | 1014.4 |
| 20260506170050 | 16 | 135 | 4.8 | 11.3 | 0.05 | 0.05 | 0.05 | 90 | 1014.4 |
| 20260506165949 | 16 | 159 | 4.8 | 11.3 | 0.05 | 0.05 | 0.05 | 90 | 1014.4 |
| 20260506165851 | 16 | 182 | 4.8 | 11.3 | 0.05 | 0.05 | 0.05 | 90 | 1014.4 |
| 20260506165745 | 16 | 215 | 4.8 | 11.3 | 0.03 | 0.03 | 0.03 | 90 | 1014.4 |
| 20260506165658 | 16 | 196 | 4.8 | 16.1 | 0.03 | 0.03 | 0.03 | 90 | 1014.3 |
| 20260506165545 | 16 | 126 | 4.8 | 17.7 | 0.03 | 0.03 | 0.03 | 90 | 1014.4 |
| 20260506165443 | 16 | 145 | 6.4 | 17.7 | 0.03 | 0.03 | 0.03 | 90 | 1014.3 |
| 20260506165345 | 16 | 180 | 6.4 | 17.7 | 0.03 | 0.03 | 0.03 | 90 | 1014.4 |
| 20260506165238 | 16 | 147 | 6.4 | 17.7 | 0.03 | 0.03 | 0.03 | 90 | 1014.4 |
| 20260506165138 | 16 | 173 | 6.4 | 17.7 | 0.03 | 0.03 | 0.03 | 90 | 1014.3 |
| 20260506165039 | 16 | 167 | 6.4 | 17.7 | 0.03 | 0.03 | 0.03 | 90 | 1014.3 |
| 20260506164936 | 16 | 212 | 6.4 | 17.7 | 0.03 | 0.03 | 0.03 | 90 | 1014.3 |
| 20260506164834 | 16 | 173 | 6.4 | 17.7 | 0.03 | 0.03 | 0.03 | 90 | 1014.3 |
| 20260506164729 | 16 | 166 | 6.4 | 17.7 | 0.03 | 0.03 | 0.03 | 90 | 1014.3 |
| 20260506164628 | 16 | 171 | 4.8 | 17.7 | 0.03 | 0.03 | 0.03 | 90 | 1014.3 |
| 20260506164529 | 16 | 185 | 4.8 | 16.1 | 0.03 | 0.03 | 0.03 | 89 | 1014.3 |
| 20260506164427 | 16 | 142 | 4.8 | 16.1 | 0.03 | 0.03 | 0.03 | 89 | 1014.4 |
| 20260506164329 | 16 | 138 | 4.8 | 16.1 | 0.03 | 0.03 | 0.03 | 89 | 1014.4 |
| 20260506164228 | 16 | 146 | 4.8 | 16.1 | 0.03 | 0.03 | 0.03 | 89 | 1014.4 |
| 20260506164128 | 16 | 164 | 4.8 | 16.1 | 0.03 | 0.03 | 0.03 | 89 | 1014.5 |
| 20260506164028 | 16 | 196 | 4.8 | 16.1 | 0.03 | 0.03 | 0.03 | 89 | 1014.5 |
| 20260506163927 | 16 | 201 | 4.8 | 16.1 | 0.03 | 0.03 | 0.03 | 89 | 1014.6 |
| 20260506163828 | 16 | 149 | 4.8 | 16.1 | 0.03 | 0.03 | 0.03 | 89 | 1014.5 |
| 20260506163729 | 16 | 96 | 4.8 | 16.1 | 0.03 | 0.03 | 0.03 | 89 | 1014.5 |
| 20260506163626 | 16 | 269 | 4.8 | 16.1 | 0.03 | 0.03 | 0.03 | 88 | 1014.5 |
| 20260506163526 | 16 | 111 | 4.8 | 16.1 | 0.00 | 0.00 | 0.03 | 89 | 1014.5 |
| 20260506163425 | 16 | 142 | 4.8 | 16.1 | 0.00 | 0.00 | 0.00 | 88 | 1014.6 |
| 20260506163327 | 16 | 140 | 4.8 | 16.1 | 0.00 | 0.00 | 0.00 | 88 | 1014.6 |
| 20260506163227 | 16 | 163 | 4.8 | 16.1 | 0.00 | 0.00 | 0.00 | 88 | 1014.6 |
| 20260506163127 | 16 | 144 | 4.8 | 16.1 | 0.00 | 0.00 | 0.00 | 88 | 1014.7 |
| 20260506163023 | 16 | 203 | 4.8 | 16.1 | 0.00 | 0.00 | 0.00 | 88 | 1014.6 |
| 20260506162925 | 16 | 184 | 4.8 | 16.1 | 0.00 | 0.00 | 0.00 | 87 | 1014.7 |
| 20260506162824 | 16 | 32 | 4.8 | 16.1 | 0.00 | 0.00 | 0.00 | 88 | 1014.6 |
| 20260506162724 | 16 | 159 | 4.8 | 16.1 | 0.00 | 0.00 | 0.00 | 87 | 1014.6 |
| 20260506162625 | 16 | 167 | 4.8 | 16.1 | 0.00 | 0.00 | 0.00 | 87 | 1014.7 |
| 20260506162524 | 16 | 148 | 3.2 | 11.3 | 0.00 | 0.00 | 0.00 | 88 | 1014.7 |
| 20260506162425 | 16 | 78 | 3.2 | 11.3 | 0.00 | 0.00 | 0.00 | 87 | 1014.8 |
| 20260506162324 | 16 | 111 | 3.2 | 11.3 | 0.00 | 0.00 | 0.00 | 87 | 1015.0 |
| 20260506162224 | 16 | 77 | 3.2 | 11.3 | 0.00 | 0.00 | 0.00 | 87 | 1014.8 |
| 20260506162124 | 16 | 184 | 3.2 | 11.3 | 0.00 | 0.00 | 0.00 | 87 | 1015.0 |
| 20260506162023 | 16 | 176 | 3.2 | 12.9 | 0.00 | 0.00 | 0.00 | 87 | 1015.0 |
| 20260506161925 | 16 | 110 | 3.2 | 12.9 | 0.00 | 0.00 | 0.00 | 87 | 1015.0 |
| 20260506161821 | 16 | 110 | 3.2 | 12.9 | 0.00 | 0.00 | 0.00 | 87 | 1015.0 |
| 20260506161718 | 16 | 138 | 3.2 | 12.9 | 0.00 | 0.00 | 0.00 | 87 | 1015.0 |
| 20260506161619 | 16 | 138 | 3.2 | 12.9 | 0.00 | 0.00 | 0.00 | 87 | 1014.8 |
| 20260506161519 | 16 | 130 | 3.2 | 12.9 | 0.00 | 0.00 | 0.00 | 87 | 1015.0 |
| 20260506161418 | 16 | 200 | 3.2 | 12.9 | 0.00 | 0.00 | 0.00 | 87 | 1014.9 |
| 20260506161313 | 16 | 146 | 3.2 | 12.9 | 0.00 | 0.00 | 0.00 | 87 | 1014.9 |
| 20260506161213 | 16 | 159 | 3.2 | 12.9 | 0.00 | 0.00 | 0.00 | 87 | 1014.8 |
| 20260506161112 | 16 | 67 | 1.6 | 8.0 | 0.00 | 0.00 | 0.00 | 87 | 1014.9 |
| 20260506161012 | 16 | 135 | 1.6 | 8.0 | 0.00 | 0.00 | 0.00 | 87 | 1014.9 |
| 20260506160912 | 16 | 150 | 1.6 | 8.0 | 0.00 | 0.00 | 0.00 | 87 | 1014.8 |
| 20260506160812 | 16 | 150 | 1.6 | 11.3 | 0.00 | 0.00 | 0.00 | 88 | 1014.7 |
| 20260506160713 | 16 | 145 | 1.6 | 11.3 | 0.00 | 0.00 | 0.00 | 88 | 1014.7 |
| 20260506160611 | 16 | 145 | 1.6 | 11.3 | 0.00 | 0.00 | 0.00 | 88 | 1014.6 |
| 20260506160513 | 16 | 176 | 1.6 | 11.3 | 0.00 | 0.00 | 0.00 | 87 | 1014.6 |
| 20260506160409 | 16 | 171 | 1.6 | 11.3 | 0.00 | 0.00 | 0.00 | 87 | 1014.5 |
| 20260506160309 | 16 | 94 | 1.6 | 11.3 | 0.00 | 0.00 | 0.00 | 87 | 1014.6 |
| 20260506160209 | 16 | 94 | 3.2 | 11.3 | 0.00 | 0.00 | 0.00 | 87 | 1014.6 |
| 20260506160110 | 16 | 92 | 3.2 | 11.3 | 0.00 | 0.00 | 0.00 | 87 | 1014.7 |
| 20260506160010 | 16 | 94 | 3.2 | 14.5 | 0.00 | 0.00 | 0.00 | 87 | 1014.7 |
| 20260506155911 | 16 | 86 | 4.8 | 14.5 | 0.00 | 0.00 | 0.00 | 87 | 1014.7 |
| 20260506155807 | 15 | 104 | 4.8 | 14.5 | 0.00 | 0.00 | 0.00 | 88 | 1014.7 |
| 20260506155708 | 16 | 236 | 4.8 | 14.5 | 0.00 | 0.00 | 0.00 | 87 | 1014.5 |
| 20260506155609 | 15 | 245 | 6.4 | 14.5 | 0.00 | 0.00 | 0.00 | 87 | 1014.5 |
| 20260506155507 | 16 | 258 | 6.4 | 14.5 | 0.00 | 0.00 | 0.00 | 87 | 1014.5 |
| 20260506155407 | 15 | 196 | 6.4 | 14.5 | 0.00 | 0.00 | 0.00 | 87 | 1014.4 |
| 20260506155307 | 15 | 175 | 6.4 | 14.5 | 0.00 | 0.00 | 0.00 | 88 | 1014.4 |
| 20260506155209 | 15 | 120 | 6.4 | 14.5 | 0.00 | 0.00 | 0.00 | 88 | 1014.4 |
| 20260506155107 | 15 | 185 | 6.4 | 14.5 | 0.00 | 0.00 | 0.00 | 88 | 1014.2 |
| 20260506155009 | 15 | 69 | 6.4 | 14.5 | 0.00 | 0.00 | 0.00 | 88 | 1014.1 |
| 20260506154903 | 15 | 118 | 6.4 | 14.5 | 0.00 | 0.00 | 0.00 | 88 | 1014.2 |
| 20260506154804 | 15 | 166 | 4.8 | 14.5 | 0.00 | 0.00 | 0.00 | 88 | 1014.2 |
| 20260506154703 | 15 | 163 | 4.8 | 14.5 | 0.00 | 0.00 | 0.00 | 88 | 1014.2 |
| 20260506154605 | 15 | 126 | 3.2 | 14.5 | 0.00 | 0.00 | 0.00 | 88 | 1014.3 |
| 20260506154504 | 15 | 172 | 3.2 | 14.5 | 0.00 | 0.00 | 0.00 | 88 | 1014.3 |
| 20260506154403 | 15 | 136 | 3.2 | 11.3 | 0.00 | 0.00 | 0.00 | 88 | 1014.3 |
| 20260506154303 | 15 | 147 | 3.2 | 16.1 | 0.00 | 0.00 | 0.00 | 88 | 1014.5 |
| 20260506154203 | 15 | 134 | 3.2 | 16.1 | 0.00 | 0.00 | 0.00 | 88 | 1014.4 |
| 20260506154104 | 15 | 94 | 3.2 | 16.1 | 0.00 | 0.00 | 0.00 | 87 | 1014.4 |
| 20260506154005 | 15 | 167 | 3.2 | 16.1 | 0.00 | 0.00 | 0.00 | 87 | 1014.5 |
| 20260506153904 | 15 | 170 | 3.2 | 16.1 | 0.00 | 0.00 | 0.00 | 87 | 1014.4 |
| 20260506153803 | 15 | 170 | 4.8 | 16.1 | 0.00 | 0.00 | 0.00 | 87 | 1014.2 |
| 20260506153703 | 15 | 169 | 4.8 | 16.1 | 0.00 | 0.00 | 0.00 | 87 | 1014.2 |
| 20260506153605 | 15 | 170 | 4.8 | 16.1 | 0.00 | 0.00 | 0.00 | 87 | 1014.1 |
| 20260506153504 | 15 | 168 | 4.8 | 16.1 | 0.00 | 0.00 | 0.00 | 87 | 1014.1 |
| 20260506153404 | 15 | 155 | 4.8 | 16.1 | 0.00 | 0.00 | 0.00 | 87 | 1014.0 |
| 20260506153304 | 15 | 124 | 4.8 | 8.0 | 0.00 | 0.00 | 0.00 | 87 | 1013.9 |
| 20260506153205 | 16 | 128 | 4.8 | 12.9 | 0.00 | 0.00 | 0.00 | 87 | 1013.8 |
| 20260506153104 | 16 | 145 | 4.8 | 12.9 | 0.00 | 0.00 | 0.00 | 87 | 1013.9 |
| 20260506153005 | 16 | 173 | 4.8 | 12.9 | 0.00 | 0.00 | 0.00 | 87 | 1013.9 |
| 20260506152904 | 16 | 132 | 4.8 | 12.9 | 0.00 | 0.00 | 0.00 | 87 | 1014.0 |
| 20260506152803 | 16 | 163 | 3.2 | 12.9 | 0.00 | 0.00 | 0.00 | 87 | 1014.0 |
| 20260506152704 | 16 | 150 | 4.8 | 12.9 | 0.00 | 0.00 | 0.00 | 87 | 1014.2 |
| 20260506152603 | 16 | 150 | 4.8 | 16.1 | 0.00 | 0.00 | 0.00 | 87 | 1014.1 |
| 20260506152504 | 16 | 150 | 4.8 | 16.1 | 0.00 | 0.00 | 0.00 | 86 | 1014.0 |
| 20260506152404 | 16 | 146 | 4.8 | 16.1 | 0.00 | 0.00 | 0.00 | 86 | 1014.1 |
| 20260506152305 | 16 | 147 | 4.8 | 16.1 | 0.00 | 0.00 | 0.00 | 87 | 1014.2 |
| 20260506152203 | 16 | 162 | 4.8 | 16.1 | 0.00 | 0.00 | 0.00 | 87 | 1014.3 |
| 20260506152104 | 16 | 232 | 4.8 | 16.1 | 0.00 | 0.00 | 0.00 | 87 | 1014.2 |
| 20260506152004 | 16 | 168 | 3.2 | 16.1 | 0.00 | 0.00 | 0.00 | 86 | 1014.3 |
| 20260506151903 | 16 | 172 | 3.2 | 16.1 | 0.00 | 0.00 | 0.00 | 86 | 1014.3 |
| 20260506151805 | 16 | 173 | 3.2 | 16.1 | 0.00 | 0.00 | 0.00 | 86 | 1014.4 |
| 20260506151704 | 16 | 150 | 1.6 | 11.3 | 0.00 | 0.00 | 0.00 | 86 | 1014.2 |
| 20260506151600 | 16 | 298 | 1.6 | 9.7 | 0.00 | 0.00 | 0.00 | 87 | 1014.3 |
| 20260506151500 | 16 | 173 | 1.6 | 8.0 | 0.00 | 0.00 | 0.00 | 87 | 1014.3 |
| 20260506151359 | 16 | 186 | 1.6 | 8.0 | 0.00 | 0.00 | 0.00 | 87 | 1014.2 |
| 20260506151301 | 16 | 197 | 1.6 | 8.0 | 0.00 | 0.00 | 0.00 | 87 | 1014.1 |
| 20260506151200 | 16 | 155 | 1.6 | 9.7 | 0.00 | 0.00 | 0.00 | 86 | 1014.2 |
| 20260506151059 | 16 | 155 | 1.6 | 9.7 | 0.00 | 0.00 | 0.00 | 86 | 1014.0 |
| 20260506151000 | 16 | 155 | 3.2 | 9.7 | 0.00 | 0.00 | 0.00 | 86 | 1013.7 |
| 20260506150900 | 16 | 155 | 3.2 | 9.7 | 0.00 | 0.00 | 0.00 | 86 | 1013.5 |
| 20260506150759 | 16 | 148 | 3.2 | 9.7 | 0.00 | 0.00 | 0.00 | 86 | 1013.5 |
| 20260506150701 | 16 | 140 | 3.2 | 11.3 | 0.00 | 0.00 | 0.00 | 86 | 1013.3 |
| 20260506150600 | 16 | 140 | 3.2 | 11.3 | 0.00 | 0.00 | 0.00 | 86 | 1013.4 |
| 20260506150500 | 16 | 140 | 4.8 | 11.3 | 0.00 | 0.00 | 0.00 | 86 | 1013.4 |
| 20260506150401 | 16 | 140 | 4.8 | 11.3 | 0.00 | 0.00 | 0.00 | 86 | 1013.3 |
| 20260506150303 | 16 | 138 | 4.8 | 11.3 | 0.00 | 0.00 | 0.00 | 86 | 1013.3 |
| 20260506150200 | 16 | 153 | 4.8 | 11.3 | 0.00 | 0.00 | 0.00 | 86 | 1013.3 |
| 20260506150100 | 16 | 154 | 4.8 | 11.3 | 0.00 | 0.00 | 0.00 | 86 | 1013.3 |
| 20260506150001 | 16 | 153 | 4.8 | 11.3 | 0.00 | 0.00 | 0.00 | 87 | 1013.3 |
| 20260506145901 | 16 | 136 | 4.8 | 11.3 | 0.00 | 0.00 | 0.00 | 87 | 1013.3 |
| 20260506145759 | 16 | 174 | 4.8 | 11.3 | 0.00 | 0.00 | 0.00 | 87 | 1013.4 |
| 20260506145659 | 16 | 154 | 4.8 | 11.3 | 0.00 | 0.00 | 0.00 | 87 | 1013.4 |
| 20260506145600 | 16 | 178 | 4.8 | 11.3 | 0.00 | 0.00 | 0.00 | 87 | 1013.3 |
| 20260506145501 | 16 | 144 | 3.2 | 9.7 | 0.00 | 0.00 | 0.00 | 87 | 1013.3 |
| 20260506145400 | 16 | 136 | 3.2 | 8.0 | 0.00 | 0.00 | 0.00 | 87 | 1013.3 |
| 20260506145259 | 15 | 134 | 3.2 | 8.0 | 0.00 | 0.00 | 0.00 | 87 | 1013.2 |
| 20260506145159 | 15 | 134 | 3.2 | 8.0 | 0.00 | 0.00 | 0.00 | 88 | 1013.2 |
| 20260506145100 | 15 | 134 | 3.2 | 8.0 | 0.00 | 0.00 | 0.00 | 87 | 1013.2 |
| 20260506144952 | 15 | 129 | 3.2 | 8.0 | 0.00 | 0.00 | 0.00 | 87 | 1013.3 |
| 20260506144852 | 15 | 137 | 3.2 | 8.0 | 0.00 | 0.00 | 0.00 | 87 | 1013.3 |
| 20260506144752 | 15 | 144 | 3.2 | 8.0 | 0.00 | 0.00 | 0.00 | 87 | 1013.4 |
| 20260506144651 | 15 | 173 | 3.2 | 8.0 | 0.00 | 0.00 | 0.00 | 87 | 1013.4 |
| 20260506144553 | 15 | 122 | 3.2 | 6.4 | 0.00 | 0.00 | 0.00 | 87 | 1013.4 |
| 20260506144453 | 15 | 122 | 3.2 | 8.0 | 0.00 | 0.00 | 0.00 | 87 | 1013.4 |
| 20260506144351 | 15 | 122 | 3.2 | 8.0 | 0.00 | 0.00 | 0.00 | 87 | 1013.4 |
| 20260506144252 | 15 | 115 | 3.2 | 8.0 | 0.00 | 0.00 | 0.00 | 87 | 1013.4 |
| 20260506144151 | 15 | 120 | 3.2 | 8.0 | 0.00 | 0.00 | 0.00 | 87 | 1013.5 |
| 20260506144052 | 15 | 118 | 3.2 | 8.0 | 0.00 | 0.00 | 0.00 | 87 | 1013.5 |
| 20260506143951 | 15 | 119 | 3.2 | 8.0 | 0.00 | 0.00 | 0.00 | 86 | 1013.4 |
| 20260506143852 | 15 | 138 | 1.6 | 8.0 | 0.00 | 0.00 | 0.00 | 86 | 1013.4 |
| 20260506143751 | 15 | 138 | 1.6 | 8.0 | 0.00 | 0.00 | 0.00 | 86 | 1013.5 |
| 20260506143652 | 15 | 131 | 3.2 | 8.0 | 0.00 | 0.00 | 0.00 | 86 | 1013.7 |
| 20260506143552 | 15 | 130 | 3.2 | 8.0 | 0.00 | 0.00 | 0.00 | 86 | 1013.5 |
| 20260506143452 | 15 | 144 | 3.2 | 8.0 | 0.00 | 0.00 | 0.00 | 86 | 1013.7 |
| 20260506143352 | 15 | 144 | 3.2 | 8.0 | 0.00 | 0.00 | 0.00 | 86 | 1013.5 |
| 20260506143252 | 15 | 101 | 3.2 | 8.0 | 0.00 | 0.00 | 0.00 | 85 | 1013.5 |
| 20260506143151 | 15 | 99 | 3.2 | 8.0 | 0.00 | 0.00 | 0.00 | 85 | 1013.4 |
| 20260506143051 | 15 | 88 | 3.2 | 8.0 | 0.00 | 0.00 | 0.00 | 85 | 1013.5 |
| 20260506142951 | 15 | 14 | 3.2 | 8.0 | 0.00 | 0.00 | 0.00 | 85 | 1013.5 |
| 20260506142853 | 15 | 175 | 4.8 | 8.0 | 0.00 | 0.00 | 0.00 | 85 | 1013.4 |
| 20260506142751 | 15 | 175 | 4.8 | 9.7 | 0.00 | 0.00 | 0.00 | 85 | 1013.5 |
| 20260506142652 | 15 | 156 | 4.8 | 9.7 | 0.00 | 0.00 | 0.00 | 85 | 1013.4 |
| 20260506142551 | 15 | 131 | 4.8 | 11.3 | 0.00 | 0.00 | 0.00 | 85 | 1013.4 |
| 20260506142452 | 15 | 132 | 4.8 | 11.3 | 0.00 | 0.00 | 0.00 | 85 | 1013.4 |
| 20260506142352 | 15 | 144 | 4.8 | 11.3 | 0.00 | 0.00 | 0.00 | 85 | 1013.5 |
| 20260506142251 | 15 | 109 | 4.8 | 11.3 | 0.00 | 0.00 | 0.00 | 85 | 1013.5 |
| 20260506142151 | 15 | 138 | 4.8 | 11.3 | 0.00 | 0.00 | 0.00 | 85 | 1013.5 |
| 20260506142053 | 15 | 136 | 4.8 | 11.3 | 0.00 | 0.00 | 0.00 | 86 | 1013.5 |
| 20260506141952 | 15 | 164 | 4.8 | 11.3 | 0.00 | 0.00 | 0.00 | 85 | 1013.4 |
| 20260506141851 | 15 | 112 | 3.2 | 11.3 | 0.00 | 0.00 | 0.00 | 86 | 1013.5 |
| 20260506141752 | 15 | 142 | 3.2 | 11.3 | 0.00 | 0.00 | 0.00 | 86 | 1013.4 |
| 20260506141647 | 15 | 142 | 3.2 | 11.3 | 0.00 | 0.00 | 0.00 | 86 | 1013.5 |
| 20260506141547 | 15 | 130 | 3.2 | 11.3 | 0.00 | 0.00 | 0.00 | 86 | 1013.4 |
| 20260506141447 | 15 | 123 | 3.2 | 6.4 | 0.00 | 0.00 | 0.00 | 86 | 1013.4 |
| 20260506141347 | 15 | 192 | 3.2 | 6.4 | 0.00 | 0.00 | 0.00 | 86 | 1013.4 |
| 20260506141247 | 15 | 194 | 1.6 | 6.4 | 0.00 | 0.00 | 0.00 | 86 | 1013.4 |
| 20260506141149 | 15 | 146 | 1.6 | 6.4 | 0.00 | 0.00 | 0.00 | 86 | 1013.3 |
| 20260506141047 | 15 | 94 | 1.6 | 6.4 | 0.00 | 0.00 | 0.00 | 86 | 1013.3 |
| 20260506140948 | 15 | 162 | 1.6 | 6.4 | 0.00 | 0.00 | 0.00 | 86 | 1013.4 |
| 20260506140847 | 15 | 162 | 1.6 | 6.4 | 0.00 | 0.00 | 0.00 | 86 | 1013.4 |
| 20260506140747 | 15 | 163 | 1.6 | 6.4 | 0.00 | 0.00 | 0.00 | 86 | 1013.3 |
| 20260506140647 | 15 | 163 | 1.6 | 6.4 | 0.00 | 0.00 | 0.00 | 86 | 1013.3 |
| 20260506140547 | 15 | 165 | 1.6 | 6.4 | 0.00 | 0.00 | 0.00 | 86 | 1013.2 |
| 20260506140447 | 15 | 85 | 1.6 | 6.4 | 0.00 | 0.00 | 0.00 | 86 | 1013.2 |
| 20260506140347 | 15 | 58 | 1.6 | 4.8 | 0.00 | 0.00 | 0.00 | 86 | 1013.4 |
| 20260506140248 | 15 | 58 | 1.6 | 4.8 | 0.00 | 0.00 | 0.00 | 86 | 1013.3 |
| 20260506140147 | 15 | 58 | 1.6 | 4.8 | 0.00 | 0.00 | 0.00 | 86 | 1013.3 |
| 20260506140047 | 15 | 58 | 1.6 | 4.8 | 0.00 | 0.00 | 0.00 | 86 | 1013.3 |
| 20260506135947 | 15 | 58 | 1.6 | 4.8 | 0.00 | 0.00 | 0.00 | 86 | 1013.3 |
| 20260506135847 | 15 | 58 | 1.6 | 4.8 | 0.00 | 0.00 | 0.00 | 86 | 1013.4 |
| 20260506135747 | 15 | 0 | 1.6 | 3.2 | 0.00 | 0.00 | 0.00 | 86 | 1013.5 |
| 20260506135647 | 15 | 0 | 1.6 | 4.8 | 0.00 | 0.00 | 0.00 | 86 | 1013.4 |
| 20260506135548 | 15 | 0 | 1.6 | 4.8 | 0.00 | 0.00 | 0.00 | 86 | 1013.4 |
| 20260506135447 | 15 | 355 | 1.6 | 4.8 | 0.00 | 0.00 | 0.00 | 86 | 1013.4 |
| 20260506135347 | 15 | 355 | 1.6 | 6.4 | 0.00 | 0.00 | 0.00 | 86 | 1013.5 |
| 20260506135248 | 15 | 355 | 1.6 | 6.4 | 0.00 | 0.00 | 0.00 | 86 | 1013.5 |
| 20260506135149 | 15 | 346 | 1.6 | 6.4 | 0.00 | 0.00 | 0.00 | 85 | 1013.7 |
| 20260506135048 | 15 | 346 | 1.6 | 6.4 | 0.00 | 0.00 | 0.00 | 85 | 1013.7 |
| 20260506134947 | 15 | 346 | 1.6 | 6.4 | 0.00 | 0.00 | 0.00 | 85 | 1013.7 |
| 20260506134848 | 15 | 346 | 1.6 | 6.4 | 0.00 | 0.00 | 0.00 | 85 | 1013.8 |
| 20260506134748 | 15 | 346 | 1.6 | 6.4 | 0.00 | 0.00 | 0.00 | 86 | 1013.7 |
| 20260506134647 | 15 | 346 | 1.6 | 8.0 | 0.00 | 0.00 | 0.00 | 86 | 1013.7 |
| 20260506134548 | 15 | 303 | 1.6 | 8.0 | 0.00 | 0.00 | 0.00 | 86 | 1013.7 |
| 20260506134448 | 15 | 240 | 1.6 | 8.0 | 0.00 | 0.00 | 0.00 | 86 | 1013.5 |
| 20260506134343 | 15 | 21 | 3.2 | 8.0 | 0.00 | 0.00 | 0.00 | 86 | 1013.4 |
| 20260506134244 | 15 | 94 | 3.2 | 8.0 | 0.00 | 0.00 | 0.00 | 85 | 1013.4 |
| 20260506134143 | 15 | 94 | 3.2 | 8.0 | 0.00 | 0.00 | 0.00 | 85 | 1013.5 |
| 20260506134045 | 15 | 136 | 3.2 | 8.0 | 0.00 | 0.00 | 0.00 | 85 | 1013.5 |
| 20260506133944 | 15 | 137 | 3.2 | 8.0 | 0.00 | 0.00 | 0.00 | 85 | 1013.4 |
| 20260506133844 | 15 | 137 | 3.2 | 8.0 | 0.00 | 0.00 | 0.00 | 85 | 1013.4 |
| 20260506133743 | 15 | 137 | 3.2 | 8.0 | 0.00 | 0.00 | 0.00 | 85 | 1013.3 |
| 20260506133643 | 15 | 145 | 3.2 | 8.0 | 0.00 | 0.00 | 0.00 | 85 | 1013.2 |
| 20260506133543 | 15 | 138 | 3.2 | 8.0 | 0.00 | 0.00 | 0.00 | 85 | 1013.3 |
| 20260506133444 | 15 | 132 | 3.2 | 8.0 | 0.00 | 0.00 | 0.00 | 85 | 1013.2 |
| 20260506133343 | 15 | 133 | 3.2 | 8.0 | 0.00 | 0.00 | 0.00 | 85 | 1013.3 |
| 20260506133244 | 15 | 129 | 3.2 | 8.0 | 0.00 | 0.00 | 0.00 | 85 | 1013.3 |
| 20260506133137 | 15 | 127 | 3.2 | 8.0 | 0.00 | 0.00 | 0.00 | 84 | 1013.4 |
| 20260506133036 | 15 | 126 | 3.2 | 8.0 | 0.00 | 0.00 | 0.00 | 84 | 1013.3 |
| 20260506132934 | 15 | 208 | 3.2 | 8.0 | 0.00 | 0.00 | 0.00 | 85 | 1013.4 |
| 20260506132835 | 15 | 153 | 3.2 | 8.0 | 0.00 | 0.00 | 0.00 | 85 | 1013.2 |
| 20260506132733 | 15 | 140 | 3.2 | 9.7 | 0.00 | 0.00 | 0.00 | 85 | 1013.3 |
| 20260506132630 | 15 | 115 | 3.2 | 9.7 | 0.00 | 0.00 | 0.00 | 85 | 1013.3 |
| 20260506132527 | 15 | 151 | 3.2 | 9.7 | 0.00 | 0.00 | 0.00 | 85 | 1013.2 |
| 20260506132427 | 15 | 160 | 3.2 | 9.7 | 0.00 | 0.00 | 0.00 | 85 | 1013.3 |
| 20260506132329 | 15 | 160 | 3.2 | 9.7 | 0.00 | 0.00 | 0.00 | 85 | 1013.1 |
| 20260506132229 | 15 | 172 | 3.2 | 9.7 | 0.00 | 0.00 | 0.00 | 85 | 1013.2 |
| 20260506132123 | 15 | 178 | 3.2 | 9.7 | 0.00 | 0.00 | 0.00 | 85 | 1013.2 |
| 20260506132023 | 15 | 130 | 3.2 | 9.7 | 0.00 | 0.00 | 0.00 | 85 | 1013.2 |
| 20260506131922 | 15 | 130 | 3.2 | 9.7 | 0.00 | 0.00 | 0.00 | 85 | 1013.3 |
| 20260506131821 | 15 | 146 | 3.2 | 9.7 | 0.00 | 0.00 | 0.00 | 85 | 1013.3 |
| 20260506131722 | 15 | 165 | 1.6 | 9.7 | 0.00 | 0.00 | 0.00 | 85 | 1013.3 |
| 20260506131613 | 15 | 178 | 3.2 | 9.7 | 0.00 | 0.00 | 0.00 | 85 | 1013.4 |
| 20260506131511 | 15 | 176 | 3.2 | 9.7 | 0.00 | 0.00 | 0.00 | 85 | 1013.3 |
| 20260506131412 | 15 | 178 | 3.2 | 9.7 | 0.00 | 0.00 | 0.00 | 85 | 1013.4 |
| 20260506131312 | 15 | 179 | 3.2 | 9.7 | 0.00 | 0.00 | 0.00 | 85 | 1013.5 |
| 20260506131211 | 15 | 181 | 3.2 | 9.7 | 0.00 | 0.00 | 0.00 | 85 | 1013.5 |
| 20260506131105 | 15 | 271 | 3.2 | 9.7 | 0.00 | 0.00 | 0.00 | 85 | 1013.3 |
| 20260506131006 | 15 | 138 | 3.2 | 9.7 | 0.00 | 0.00 | 0.00 | 85 | 1013.4 |
| 20260506130906 | 15 | 70 | 3.2 | 9.7 | 0.00 | 0.00 | 0.00 | 86 | 1013.4 |
| 20260506130807 | 15 | 272 | 3.2 | 9.7 | 0.00 | 0.00 | 0.00 | 86 | 1013.3 |
| 20260506130705 | 15 | 271 | 3.2 | 9.7 | 0.00 | 0.00 | 0.00 | 86 | 1013.3 |
| 20260506130603 | 15 | 142 | 3.2 | 9.7 | 0.00 | 0.00 | 0.00 | 86 | 1013.3 |
| 20260506130459 | 15 | 142 | 3.2 | 9.7 | 0.00 | 0.00 | 0.00 | 86 | 1013.4 |
| 20260506130400 | 15 | 140 | 3.2 | 9.7 | 0.00 | 0.00 | 0.00 | 86 | 1013.3 |
| 20260506130259 | 15 | 136 | 4.8 | 11.3 | 0.00 | 0.00 | 0.00 | 86 | 1013.4 |
| 20260506130200 | 15 | 165 | 4.8 | 11.3 | 0.00 | 0.00 | 0.00 | 86 | 1013.4 |
| 20260506130053 | 15 | 165 | 4.8 | 11.3 | 0.00 | 0.00 | 0.00 | 86 | 1013.4 |
| 20260506125949 | 15 | 127 | 4.8 | 11.3 | 0.00 | 0.00 | 0.00 | 86 | 1013.7 |
| 20260506125850 | 15 | 298 | 4.8 | 14.5 | 0.00 | 0.00 | 0.00 | 86 | 1013.7 |
| 20260506125749 | 15 | 294 | 4.8 | 14.5 | 0.00 | 0.00 | 0.00 | 86 | 1013.7 |
| 20260506125649 | 15 | 170 | 6.4 | 14.5 | 0.00 | 0.00 | 0.00 | 86 | 1013.4 |
| 20260506125543 | 15 | 171 | 6.4 | 14.5 | 0.00 | 0.00 | 0.00 | 87 | 1013.4 |
| 20260506125442 | 15 | 138 | 6.4 | 14.5 | 0.00 | 0.00 | 0.00 | 87 | 1013.4 |
| 20260506125343 | 15 | 175 | 4.8 | 14.5 | 0.00 | 0.00 | 0.00 | 87 | 1013.4 |
| 20260506125244 | 15 | 123 | 4.8 | 14.5 | 0.00 | 0.00 | 0.00 | 87 | 1013.4 |
| 20260506125143 | 15 | 161 | 4.8 | 14.5 | 0.00 | 0.00 | 0.00 | 87 | 1013.4 |
| 20260506125040 | 15 | 166 | 4.8 | 14.5 | 0.00 | 0.00 | 0.00 | 87 | 1013.4 |
| 20260506124937 | 15 | 158 | 4.8 | 14.5 | 0.00 | 0.00 | 0.00 | 87 | 1013.3 |
| 20260506124839 | 15 | 120 | 3.2 | 12.9 | 0.00 | 0.00 | 0.00 | 87 | 1013.4 |
| 20260506124736 | 14 | 157 | 3.2 | 11.3 | 0.00 | 0.00 | 0.00 | 88 | 1013.4 |
| 20260506124637 | 14 | 159 | 3.2 | 11.3 | 0.00 | 0.00 | 0.00 | 88 | 1013.4 |
| 20260506124530 | 14 | 146 | 3.2 | 11.3 | 0.00 | 0.00 | 0.00 | 88 | 1013.4 |
| 20260506124427 | 14 | 179 | 3.2 | 11.3 | 0.00 | 0.00 | 0.00 | 88 | 1013.5 |
| 20260506124329 | 14 | 148 | 3.2 | 9.7 | 0.00 | 0.00 | 0.00 | 88 | 1013.4 |
| 20260506124228 | 14 | 126 | 3.2 | 9.7 | 0.00 | 0.00 | 0.00 | 88 | 1013.3 |
| 20260506124128 | 14 | 144 | 3.2 | 9.7 | 0.00 | 0.00 | 0.00 | 88 | 1013.5 |
| 20260506124022 | 14 | 145 | 3.2 | 12.9 | 0.00 | 0.00 | 0.00 | 88 | 1013.5 |
| 20260506123922 | 14 | 128 | 3.2 | 12.9 | 0.00 | 0.00 | 0.00 | 88 | 1013.3 |
| 20260506123822 | 14 | 96 | 4.8 | 12.9 | 0.00 | 0.00 | 0.00 | 88 | 1013.2 |
| 20260506123722 | 14 | 121 | 4.8 | 12.9 | 0.00 | 0.00 | 0.00 | 88 | 1013.3 |
| 20260506123622 | 14 | 87 | 3.2 | 12.9 | 0.00 | 0.00 | 0.00 | 88 | 1013.2 |
| 20260506123521 | 14 | 157 | 4.8 | 12.9 | 0.00 | 0.00 | 0.00 | 88 | 1013.2 |
| 20260506123420 | 14 | 122 | 4.8 | 12.9 | 0.00 | 0.00 | 0.00 | 88 | 1013.2 |
| 20260506123319 | 14 | 122 | 4.8 | 12.9 | 0.00 | 0.00 | 0.00 | 88 | 1013.2 |
| 20260506123219 | 14 | 122 | 4.8 | 12.9 | 0.00 | 0.00 | 0.00 | 88 | 1013.1 |
| 20260506123116 | 14 | 121 | 4.8 | 12.9 | 0.00 | 0.00 | 0.00 | 88 | 1013.0 |
| 20260506123006 | 14 | 155 | 4.8 | 12.9 | 0.00 | 0.00 | 0.00 | 89 | 1013.0 |
| 20260506122906 | 14 | 147 | 4.8 | 12.9 | 0.00 | 0.00 | 0.00 | 89 | 1012.9 |
| 20260506122807 | 13 | 180 | 4.8 | 12.9 | 0.00 | 0.00 | 0.00 | 89 | 1012.9 |
| 20260506122705 | 13 | 144 | 4.8 | 12.9 | 0.00 | 0.00 | 0.00 | 89 | 1013.0 |
| 20260506122605 | 13 | 141 | 4.8 | 16.1 | 0.00 | 0.00 | 0.00 | 89 | 1013.1 |
| 20260506122500 | 13 | 140 | 4.8 | 16.1 | 0.00 | 0.00 | 0.00 | 89 | 1013.1 |
| 20260506122359 | 13 | 177 | 4.8 | 16.1 | 0.00 | 0.00 | 0.00 | 89 | 1013.1 |
| 20260506122301 | 13 | 148 | 4.8 | 16.1 | 0.00 | 0.00 | 0.00 | 89 | 1013.2 |
| 20260506122159 | 13 | 178 | 4.8 | 16.1 | 0.00 | 0.00 | 0.00 | 89 | 1013.1 |
| 20260506122059 | 13 | 154 | 6.4 | 16.1 | 0.00 | 0.00 | 0.00 | 89 | 1013.1 |
| 20260506121959 | 13 | 159 | 6.4 | 16.1 | 0.00 | 0.00 | 0.00 | 89 | 1013.1 |
| 20260506121859 | 13 | 150 | 6.4 | 16.1 | 0.00 | 0.00 | 0.00 | 89 | 1013.1 |
| 20260506121758 | 13 | 153 | 6.4 | 16.1 | 0.00 | 0.00 | 0.00 | 89 | 1013.0 |
| 20260506121654 | 13 | 163 | 6.4 | 16.1 | 0.00 | 0.00 | 0.00 | 89 | 1013.0 |
| 20260506121553 | 13 | 182 | 6.4 | 14.5 | 0.00 | 0.00 | 0.00 | 89 | 1012.9 |
| 20260506121449 | 13 | 157 | 6.4 | 14.5 | 0.00 | 0.00 | 0.00 | 89 | 1012.8 |
| 20260506121348 | 13 | 119 | 6.4 | 14.5 | 0.00 | 0.00 | 0.00 | 89 | 1012.8 |
| 20260506121248 | 13 | 161 | 6.4 | 14.5 | 0.00 | 0.00 | 0.00 | 89 | 1012.9 |
| 20260506121147 | 13 | 150 | 6.4 | 12.9 | 0.00 | 0.00 | 0.00 | 89 | 1012.9 |
| 20260506121046 | 13 | 150 | 6.4 | 12.9 | 0.00 | 0.00 | 0.00 | 89 | 1013.0 |
| 20260506120948 | 13 | 158 | 6.4 | 12.9 | 0.00 | 0.00 | 0.00 | 89 | 1013.0 |
| 20260506120846 | 13 | 121 | 6.4 | 12.9 | 0.00 | 0.00 | 0.00 | 89 | 1012.9 |
| 20260506120745 | 13 | 132 | 6.4 | 12.9 | 0.00 | 0.00 | 0.00 | 89 | 1013.1 |
| 20260506120645 | 13 | 167 | 6.4 | 12.9 | 0.00 | 0.00 | 0.00 | 89 | 1013.0 |
| 20260506120546 | 13 | 142 | 6.4 | 12.9 | 0.00 | 0.00 | 0.00 | 89 | 1013.1 |
| 20260506120445 | 13 | 170 | 6.4 | 12.9 | 0.00 | 0.00 | 0.00 | 89 | 1013.3 |
| 20260506120344 | 13 | 137 | 6.4 | 12.9 | 0.00 | 0.00 | 0.00 | 89 | 1013.2 |
| 20260506120246 | 13 | 144 | 6.4 | 12.9 | 0.00 | 0.00 | 0.00 | 89 | 1013.3 |
| 20260506120145 | 13 | 139 | 8.0 | 12.9 | 0.00 | 0.00 | 0.00 | 89 | 1013.2 |
| 20260506120045 | 13 | 94 | 8.0 | 12.9 | 0.00 | 0.00 | 0.00 | 89 | 1013.2 |
| 20260506115946 | 13 | 142 | 8.0 | 14.5 | 0.00 | 0.00 | 0.00 | 89 | 1013.2 |
| 20260506115845 | 13 | 144 | 8.0 | 14.5 | 0.00 | 0.00 | 0.00 | 89 | 1013.2 |
| 20260506115747 | 13 | 138 | 8.0 | 14.5 | 0.00 | 0.00 | 0.00 | 89 | 1013.2 |
| 20260506115645 | 13 | 126 | 8.0 | 14.5 | 0.00 | 0.00 | 0.00 | 89 | 1013.2 |
| 20260506115546 | 13 | 145 | 6.4 | 14.5 | 0.00 | 0.00 | 0.00 | 89 | 1013.1 |
| 20260506115446 | 13 | 134 | 6.4 | 14.5 | 0.00 | 0.00 | 0.00 | 89 | 1013.1 |
| 20260506115343 | 13 | 174 | 6.4 | 14.5 | 0.00 | 0.00 | 0.00 | 89 | 1013.1 |
| 20260506115243 | 13 | 141 | 6.4 | 16.1 | 0.00 | 0.00 | 0.00 | 89 | 1013.1 |
| 20260506115144 | 13 | 175 | 6.4 | 16.1 | 0.00 | 0.00 | 0.00 | 89 | 1013.2 |
| 20260506115043 | 13 | 128 | 6.4 | 16.1 | 0.00 | 0.00 | 0.00 | 89 | 1013.2 |
| 20260506114943 | 13 | 139 | 4.8 | 16.1 | 0.00 | 0.00 | 0.00 | 89 | 1013.4 |
| 20260506114843 | 13 | 147 | 6.4 | 16.1 | 0.00 | 0.00 | 0.00 | 89 | 1013.4 |
| 20260506114744 | 13 | 145 | 6.4 | 16.1 | 0.00 | 0.00 | 0.00 | 89 | 1013.4 |
| 20260506114644 | 13 | 141 | 6.4 | 16.1 | 0.00 | 0.00 | 0.00 | 89 | 1013.5 |
| 20260506114543 | 13 | 157 | 6.4 | 16.1 | 0.00 | 0.00 | 0.00 | 89 | 1013.4 |
| 20260506114443 | 13 | 183 | 6.4 | 16.1 | 0.00 | 0.00 | 0.00 | 89 | 1013.4 |
| 20260506114342 | 13 | 144 | 6.4 | 16.1 | 0.00 | 0.00 | 0.00 | 89 | 1013.5 |
| 20260506114241 | 13 | 126 | 8.0 | 14.5 | 0.00 | 0.00 | 0.00 | 89 | 1013.7 |
| 20260506114142 | 13 | 175 | 8.0 | 14.5 | 0.00 | 0.00 | 0.00 | 89 | 1013.5 |
| 20260506114036 | 13 | 199 | 8.0 | 14.5 | 0.00 | 0.00 | 0.00 | 89 | 1013.5 |
| 20260506113936 | 13 | 184 | 8.0 | 14.5 | 0.00 | 0.00 | 0.00 | 89 | 1013.5 |
| 20260506113836 | 13 | 181 | 8.0 | 14.5 | 0.00 | 0.00 | 0.00 | 89 | 1013.4 |
| 20260506113735 | 13 | 181 | 8.0 | 14.5 | 0.00 | 0.00 | 0.00 | 89 | 1013.4 |
| 20260506113635 | 13 | 183 | 8.0 | 14.5 | 0.00 | 0.00 | 0.00 | 89 | 1013.3 |
| 20260506113530 | 13 | 159 | 8.0 | 16.1 | 0.00 | 0.00 | 0.00 | 89 | 1013.2 |
| 20260506113429 | 13 | 121 | 8.0 | 16.1 | 0.00 | 0.00 | 0.00 | 89 | 1013.3 |
| 20260506113329 | 13 | 160 | 8.0 | 16.1 | 0.00 | 0.00 | 0.00 | 89 | 1013.4 |
| 20260506113228 | 13 | 150 | 8.0 | 16.1 | 0.00 | 0.00 | 0.00 | 89 | 1013.3 |
| 20260506113130 | 13 | 169 | 8.0 | 16.1 | 0.00 | 0.00 | 0.00 | 89 | 1013.3 |
| 20260506113026 | 13 | 198 | 8.0 | 16.1 | 0.00 | 0.00 | 0.00 | 89 | 1013.3 |
| 20260506112922 | 13 | 159 | 8.0 | 17.7 | 0.00 | 0.00 | 0.00 | 89 | 1013.2 |
| 20260506112823 | 13 | 151 | 8.0 | 19.3 | 0.00 | 0.00 | 0.00 | 89 | 1013.2 |
| 20260506112723 | 13 | 148 | 8.0 | 19.3 | 0.00 | 0.00 | 0.00 | 89 | 1013.1 |
| 20260506112622 | 13 | 163 | 8.0 | 19.3 | 0.00 | 0.00 | 0.00 | 89 | 1013.1 |
| 20260506112523 | 13 | 179 | 8.0 | 19.3 | 0.00 | 0.00 | 0.00 | 89 | 1013.1 |
| 20260506112424 | 13 | 150 | 8.0 | 19.3 | 0.00 | 0.00 | 0.00 | 89 | 1013.1 |
| 20260506112323 | 13 | 150 | 8.0 | 19.3 | 0.00 | 0.00 | 0.00 | 89 | 1013.0 |
| 20260506112222 | 13 | 145 | 8.0 | 19.3 | 0.00 | 0.00 | 0.00 | 89 | 1012.9 |
| 20260506112123 | 13 | 148 | 8.0 | 19.3 | 0.00 | 0.00 | 0.00 | 89 | 1013.0 |
| 20260506112025 | 13 | 141 | 8.0 | 19.3 | 0.00 | 0.00 | 0.00 | 89 | 1013.0 |
| 20260506111923 | 13 | 146 | 6.4 | 19.3 | 0.00 | 0.00 | 0.00 | 89 | 1013.0 |
| 20260506111823 | 13 | 141 | 6.4 | 16.1 | 0.00 | 0.00 | 0.00 | 89 | 1012.9 |
| 20260506111722 | 13 | 130 | 6.4 | 16.1 | 0.00 | 0.00 | 0.00 | 89 | 1013.0 |
| 20260506111622 | 13 | 132 | 6.4 | 16.1 | 0.00 | 0.00 | 0.00 | 89 | 1013.0 |
| 20260506111521 | 13 | 144 | 6.4 | 16.1 | 0.00 | 0.00 | 0.00 | 89 | 1013.0 |
| 20260506111422 | 13 | 140 | 6.4 | 16.1 | 0.00 | 0.00 | 0.00 | 88 | 1013.0 |
| 20260506111322 | 13 | 135 | 6.4 | 16.1 | 0.00 | 0.00 | 0.00 | 88 | 1013.0 |
| 20260506111221 | 13 | 142 | 6.4 | 16.1 | 0.00 | 0.00 | 0.00 | 88 | 1013.0 |
| 20260506111121 | 13 | 175 | 6.4 | 16.1 | 0.00 | 0.00 | 0.00 | 88 | 1013.0 |
| 20260506111022 | 13 | 183 | 6.4 | 12.9 | 0.00 | 0.00 | 0.00 | 88 | 1013.0 |
| 20260506110922 | 13 | 169 | 6.4 | 12.9 | 0.00 | 0.00 | 0.00 | 88 | 1013.0 |
| 20260506110818 | 13 | 178 | 6.4 | 14.5 | 0.00 | 0.00 | 0.00 | 88 | 1013.0 |
| 20260506110717 | 13 | 175 | 6.4 | 14.5 | 0.00 | 0.00 | 0.00 | 88 | 1013.0 |
| 20260506110617 | 13 | 154 | 6.4 | 14.5 | 0.00 | 0.00 | 0.00 | 88 | 1013.0 |
| 20260506110516 | 13 | 148 | 6.4 | 25.7 | 0.00 | 0.00 | 0.00 | 88 | 1012.9 |
| 20260506110416 | 13 | 142 | 6.4 | 25.7 | 0.00 | 0.00 | 0.00 | 88 | 1012.8 |
| 20260506110317 | 13 | 161 | 6.4 | 25.7 | 0.00 | 0.00 | 0.00 | 88 | 1012.9 |
| 20260506110216 | 13 | 138 | 8.0 | 25.7 | 0.00 | 0.00 | 0.00 | 88 | 1012.9 |
| 20260506110116 | 13 | 138 | 8.0 | 25.7 | 0.00 | 0.00 | 0.00 | 88 | 1012.8 |
| 20260506110017 | 13 | 184 | 8.0 | 25.7 | 0.00 | 0.00 | 0.00 | 88 | 1012.8 |
| 20260506105918 | 13 | 105 | 6.4 | 25.7 | 0.00 | 0.00 | 0.00 | 88 | 1012.8 |
| 20260506105818 | 13 | 163 | 6.4 | 25.7 | 0.00 | 0.00 | 0.00 | 88 | 1012.8 |
| 20260506105717 | 13 | 138 | 6.4 | 25.7 | 0.00 | 0.00 | 0.00 | 88 | 1012.7 |
| 20260506105612 | 13 | 111 | 6.4 | 25.7 | 0.00 | 0.00 | 0.00 | 88 | 1012.7 |
| 20260506105510 | 13 | 133 | 6.4 | 16.1 | 0.00 | 0.00 | 0.00 | 89 | 1012.8 |
| 20260506105413 | 13 | 140 | 6.4 | 14.5 | 0.00 | 0.00 | 0.00 | 89 | 1012.8 |
| 20260506105311 | 13 | 134 | 4.8 | 14.5 | 0.00 | 0.00 | 0.00 | 89 | 1012.8 |
| 20260506105212 | 13 | 114 | 4.8 | 14.5 | 0.00 | 0.00 | 0.00 | 89 | 1012.8 |
| 20260506105107 | 13 | 139 | 4.8 | 14.5 | 0.00 | 0.00 | 0.00 | 89 | 1012.8 |
| 20260506105006 | 13 | 159 | 4.8 | 14.5 | 0.00 | 0.00 | 0.00 | 89 | 1012.8 |
| 20260506104906 | 13 | 159 | 4.8 | 14.5 | 0.00 | 0.00 | 0.00 | 89 | 1012.8 |
| 20260506104806 | 13 | 110 | 4.8 | 16.1 | 0.00 | 0.00 | 0.00 | 89 | 1012.8 |
| 20260506104706 | 13 | 115 | 4.8 | 16.1 | 0.00 | 0.00 | 0.00 | 89 | 1012.8 |
| 20260506104600 | 13 | 137 | 4.8 | 16.1 | 0.00 | 0.00 | 0.00 | 89 | 1012.7 |
| 20260506104500 | 13 | 137 | 4.8 | 16.1 | 0.00 | 0.00 | 0.00 | 89 | 1012.9 |
| 20260506104359 | 13 | 159 | 4.8 | 16.1 | 0.00 | 0.00 | 0.00 | 89 | 1012.8 |
| 20260506104300 | 13 | 161 | 4.8 | 16.1 | 0.00 | 0.00 | 0.00 | 89 | 1012.8 |
| 20260506104159 | 13 | 142 | 4.8 | 16.1 | 0.00 | 0.00 | 0.00 | 89 | 1012.9 |
| 20260506104058 | 13 | 134 | 4.8 | 16.1 | 0.00 | 0.00 | 0.00 | 89 | 1012.9 |
| 20260506104000 | 13 | 144 | 3.2 | 16.1 | 0.00 | 0.00 | 0.00 | 89 | 1012.9 |
| 20260506103859 | 13 | 180 | 3.2 | 16.1 | 0.00 | 0.00 | 0.00 | 89 | 1013.0 |
| 20260506103800 | 13 | 87 | 4.8 | 11.3 | 0.00 | 0.00 | 0.00 | 89 | 1012.9 |
| 20260506103559 | 13 | 140 | 3.2 | 11.3 | 0.00 | 0.00 | 0.00 | 89 | 1012.8 |
| 20260506103457 | 13 | 189 | 3.2 | 11.3 | 0.00 | 0.00 | 0.00 | 89 | 1012.9 |
| 20260506103356 | 13 | 130 | 3.2 | 11.3 | 0.00 | 0.00 | 0.00 | 89 | 1012.7 |
| 20260506103159 | 12 | 133 | 3.2 | 11.3 | 0.00 | 0.00 | 0.00 | 89 | 1012.8 |
| 20260506103057 | 13 | 146 | 4.8 | 11.3 | 0.00 | 0.00 | 0.00 | 89 | 1012.8 |
| 20260506102958 | 12 | 147 | 4.8 | 14.5 | 0.00 | 0.00 | 0.00 | 89 | 1012.8 |
| 20260506102846 | 12 | 149 | 4.8 | 16.1 | 0.00 | 0.00 | 0.00 | 89 | 1012.8 |
| 20260506102748 | 12 | 180 | 4.8 | 16.1 | 0.00 | 0.00 | 0.00 | 89 | 1012.7 |
| 20260506102648 | 12 | 187 | 4.8 | 16.1 | 0.00 | 0.00 | 0.00 | 89 | 1012.8 |
| 20260506102547 | 12 | 199 | 4.8 | 16.1 | 0.00 | 0.00 | 0.00 | 89 | 1012.7 |
| 20260506102448 | 12 | 200 | 6.4 | 16.1 | 0.00 | 0.00 | 0.00 | 89 | 1012.6 |
| 20260506102342 | 12 | 178 | 6.4 | 16.1 | 0.00 | 0.00 | 0.00 | 89 | 1012.6 |
| 20260506102242 | 12 | 148 | 6.4 | 16.1 | 0.00 | 0.00 | 0.00 | 89 | 1012.5 |
| 20260506102142 | 12 | 148 | 6.4 | 16.1 | 0.00 | 0.00 | 0.00 | 89 | 1012.5 |
| 20260506102042 | 12 | 129 | 6.4 | 16.1 | 0.00 | 0.00 | 0.00 | 89 | 1012.5 |
| 20260506101942 | 12 | 127 | 4.8 | 16.1 | 0.00 | 0.00 | 0.00 | 89 | 1012.5 |
| 20260506101839 | 12 | 153 | 4.8 | 16.1 | 0.00 | 0.00 | 0.00 | 89 | 1012.5 |
| 20260506101740 | 12 | 171 | 6.4 | 16.1 | 0.00 | 0.00 | 0.00 | 89 | 1012.6 |
| 20260506101639 | 12 | 139 | 6.4 | 16.1 | 0.00 | 0.00 | 0.00 | 89 | 1012.5 |
| 20260506101538 | 12 | 163 | 6.4 | 16.1 | 0.00 | 0.00 | 0.00 | 89 | 1012.6 |
| 20260506101436 | 12 | 157 | 8.0 | 16.1 | 0.00 | 0.00 | 0.00 | 89 | 1012.6 |
| 20260506101328 | 12 | 116 | 6.4 | 20.9 | 0.00 | 0.00 | 0.00 | 89 | 1012.5 |
| 20260506101229 | 12 | 142 | 8.0 | 20.9 | 0.00 | 0.00 | 0.00 | 89 | 1012.5 |
| 20260506101128 | 12 | 145 | 8.0 | 20.9 | 0.00 | 0.00 | 0.00 | 89 | 1012.5 |
| 20260506101028 | 13 | 129 | 8.0 | 20.9 | 0.00 | 0.00 | 0.00 | 89 | 1012.6 |
| 20260506100926 | 13 | 143 | 8.0 | 20.9 | 0.00 | 0.00 | 0.00 | 89 | 1012.5 |
| 20260506100819 | 12 | 167 | 8.0 | 20.9 | 0.00 | 0.00 | 0.00 | 89 | 1012.4 |
| 20260506100720 | 12 | 124 | 8.0 | 20.9 | 0.00 | 0.00 | 0.00 | 89 | 1012.4 |
| 20260506100620 | 13 | 148 | 8.0 | 20.9 | 0.00 | 0.00 | 0.00 | 89 | 1012.5 |
| 20260506100519 | 13 | 121 | 8.0 | 20.9 | 0.00 | 0.00 | 0.00 | 89 | 1012.5 |
| 20260506100420 | 13 | 128 | 8.0 | 19.3 | 0.00 | 0.00 | 0.00 | 89 | 1012.5 |
| 20260506100315 | 13 | 152 | 8.0 | 19.3 | 0.00 | 0.00 | 0.00 | 89 | 1012.6 |
| 20260506100215 | 13 | 173 | 8.0 | 19.3 | 0.00 | 0.00 | 0.00 | 89 | 1012.5 |
| 20260506100115 | 13 | 163 | 8.0 | 19.3 | 0.00 | 0.00 | 0.00 | 89 | 1012.5 |
| 20260506100017 | 13 | 163 | 8.0 | 19.3 | 0.00 | 0.00 | 0.00 | 89 | 1012.4 |
| 20260506095913 | 13 | 174 | 8.0 | 19.3 | 0.00 | 0.00 | 0.00 | 89 | 1012.4 |
| 20260506095803 | 13 | 144 | 8.0 | 19.3 | 0.00 | 0.00 | 0.00 | 89 | 1012.3 |
| 20260506095704 | 13 | 115 | 8.0 | 19.3 | 0.00 | 0.00 | 0.00 | 89 | 1012.4 |
| 20260506095604 | 13 | 225 | 8.0 | 19.3 | 0.00 | 0.00 | 0.00 | 89 | 1012.4 |
| 20260506095503 | 13 | 148 | 8.0 | 19.3 | 0.00 | 0.00 | 0.00 | 89 | 1012.4 |
| 20260506095403 | 13 | 124 | 8.0 | 19.3 | 0.00 | 0.00 | 0.00 | 89 | 1012.4 |
| 20260506095257 | 13 | 136 | 8.0 | 19.3 | 0.00 | 0.00 | 0.00 | 89 | 1012.4 |
| 20260506095157 | 13 | 131 | 8.0 | 19.3 | 0.00 | 0.00 | 0.00 | 89 | 1012.4 |
| 20260506095058 | 13 | 139 | 8.0 | 17.7 | 0.00 | 0.00 | 0.00 | 88 | 1012.4 |
| 20260506094957 | 13 | 159 | 8.0 | 17.7 | 0.00 | 0.00 | 0.00 | 88 | 1012.5 |
| 20260506094858 | 13 | 147 | 8.0 | 17.7 | 0.00 | 0.00 | 0.00 | 88 | 1012.5 |
| 20260506094753 | 13 | 155 | 8.0 | 17.7 | 0.00 | 0.00 | 0.00 | 88 | 1012.5 |
| 20260506094654 | 13 | 136 | 8.0 | 17.7 | 0.00 | 0.00 | 0.00 | 88 | 1012.6 |
| 20260506094553 | 13 | 123 | 8.0 | 16.1 | 0.00 | 0.00 | 0.00 | 88 | 1012.7 |
| 20260506094454 | 13 | 153 | 8.0 | 16.1 | 0.00 | 0.00 | 0.00 | 88 | 1012.6 |
| 20260506094352 | 13 | 160 | 8.0 | 16.1 | 0.00 | 0.00 | 0.00 | 88 | 1012.7 |
| 20260506094243 | 13 | 180 | 8.0 | 16.1 | 0.00 | 0.00 | 0.00 | 88 | 1012.6 |
| 20260506094141 | 13 | 136 | 8.0 | 16.1 | 0.00 | 0.00 | 0.00 | 88 | 1012.6 |
| 20260506094042 | 13 | 163 | 8.0 | 16.1 | 0.00 | 0.00 | 0.00 | 88 | 1012.5 |
| 20260506093942 | 13 | 134 | 8.0 | 17.7 | 0.00 | 0.00 | 0.00 | 88 | 1012.5 |
| 20260506093842 | 13 | 138 | 8.0 | 17.7 | 0.00 | 0.00 | 0.00 | 88 | 1012.6 |
| 20260506093738 | 13 | 172 | 8.0 | 17.7 | 0.00 | 0.00 | 0.00 | 88 | 1012.6 |
| 20260506093635 | 13 | 130 | 8.0 | 17.7 | 0.00 | 0.00 | 0.00 | 88 | 1012.6 |
| 20260506093534 | 13 | 150 | 8.0 | 17.7 | 0.00 | 0.00 | 0.00 | 88 | 1012.6 |
| 20260506093436 | 13 | 162 | 8.0 | 17.7 | 0.00 | 0.00 | 0.00 | 88 | 1012.6 |
| 20260506093336 | 13 | 148 | 8.0 | 17.7 | 0.00 | 0.00 | 0.00 | 88 | 1012.8 |
| 20260506093230 | 13 | 174 | 8.0 | 17.7 | 0.00 | 0.00 | 0.00 | 88 | 1012.7 |
| 20260506093130 | 13 | 146 | 8.0 | 17.7 | 0.00 | 0.00 | 0.00 | 88 | 1012.7 |
| 20260506093029 | 13 | 136 | 6.4 | 17.7 | 0.00 | 0.00 | 0.00 | 87 | 1012.6 |
| 20260506092930 | 13 | 163 | 6.4 | 14.5 | 0.00 | 0.00 | 0.00 | 87 | 1012.6 |
| 20260506092830 | 13 | 177 | 6.4 | 14.5 | 0.00 | 0.00 | 0.00 | 87 | 1012.5 |
| 20260506092720 | 13 | 196 | 6.4 | 14.5 | 0.00 | 0.00 | 0.00 | 88 | 1012.6 |
| 20260506092618 | 13 | 155 | 6.4 | 14.5 | 0.00 | 0.00 | 0.00 | 87 | 1012.5 |
| 20260506092520 | 13 | 194 | 6.4 | 14.5 | 0.00 | 0.00 | 0.00 | 87 | 1012.6 |
| 20260506092418 | 13 | 156 | 6.4 | 14.5 | 0.00 | 0.00 | 0.00 | 87 | 1012.6 |
| 20260506092319 | 13 | 158 | 8.0 | 14.5 | 0.00 | 0.00 | 0.00 | 87 | 1012.5 |
| 20260506092215 | 13 | 153 | 8.0 | 17.7 | 0.00 | 0.00 | 0.00 | 87 | 1012.5 |
| 20260506092114 | 13 | 184 | 8.0 | 19.3 | 0.00 | 0.00 | 0.00 | 87 | 1012.6 |
| 20260506092014 | 13 | 172 | 8.0 | 19.3 | 0.00 | 0.00 | 0.00 | 87 | 1012.5 |
| 20260506091912 | 13 | 142 | 8.0 | 19.3 | 0.00 | 0.00 | 0.00 | 87 | 1012.5 |
| 20260506091814 | 13 | 148 | 9.7 | 19.3 | 0.00 | 0.00 | 0.00 | 87 | 1012.5 |
| 20260506091710 | 13 | 153 | 9.7 | 19.3 | 0.00 | 0.00 | 0.00 | 87 | 1012.5 |
| 20260506091607 | 13 | 188 | 9.7 | 19.3 | 0.00 | 0.00 | 0.00 | 87 | 1012.6 |
| 20260506091508 | 13 | 142 | 9.7 | 19.3 | 0.00 | 0.00 | 0.00 | 87 | 1012.4 |
| 20260506091408 | 13 | 140 | 11.3 | 19.3 | 0.00 | 0.00 | 0.00 | 87 | 1012.6 |
| 20260506091308 | 13 | 151 | 9.7 | 19.3 | 0.00 | 0.00 | 0.00 | 87 | 1012.5 |
| 20260506091157 | 13 | 173 | 9.7 | 19.3 | 0.00 | 0.00 | 0.00 | 87 | 1012.5 |
| 20260506091058 | 13 | 145 | 9.7 | 19.3 | 0.00 | 0.00 | 0.00 | 87 | 1012.5 |
| 20260506090958 | 13 | 130 | 9.7 | 19.3 | 0.00 | 0.00 | 0.00 | 87 | 1012.6 |
| 20260506090858 | 13 | 131 | 9.7 | 19.3 | 0.00 | 0.00 | 0.00 | 87 | 1012.7 |
| 20260506090758 | 13 | 137 | 9.7 | 19.3 | 0.00 | 0.00 | 0.00 | 87 | 1012.6 |
| 20260506090652 | 13 | 138 | 9.7 | 19.3 | 0.00 | 0.00 | 0.00 | 87 | 1012.6 |
| 20260506090550 | 13 | 134 | 9.7 | 19.3 | 0.00 | 0.00 | 0.00 | 87 | 1012.7 |
| 20260506090452 | 13 | 144 | 8.0 | 19.3 | 0.00 | 0.00 | 0.00 | 87 | 1012.6 |
| 20260506090351 | 13 | 145 | 8.0 | 19.3 | 0.00 | 0.00 | 0.00 | 87 | 1012.8 |
| 20260506090252 | 13 | 186 | 8.0 | 19.3 | 0.00 | 0.00 | 0.00 | 87 | 1012.8 |
| 20260506090146 | 13 | 213 | 8.0 | 19.3 | 0.00 | 0.00 | 0.00 | 87 | 1012.6 |
| 20260506090046 | 13 | 203 | 8.0 | 19.3 | 0.00 | 0.00 | 0.00 | 87 | 1012.7 |
| 20260506085946 | 13 | 155 | 8.0 | 29.0 | 0.00 | 0.00 | 0.00 | 87 | 1012.8 |
| 20260506085845 | 13 | 155 | 8.0 | 29.0 | 0.00 | 0.00 | 0.00 | 87 | 1012.8 |
| 20260506085746 | 13 | 143 | 8.0 | 29.0 | 0.00 | 0.00 | 0.00 | 87 | 1012.7 |
| 20260506085636 | 13 | 167 | 8.0 | 29.0 | 0.00 | 0.00 | 0.00 | 87 | 1012.7 |
| 20260506085534 | 13 | 144 | 8.0 | 29.0 | 0.00 | 0.00 | 0.00 | 87 | 1012.7 |
| 20260506085436 | 13 | 134 | 8.0 | 29.0 | 0.00 | 0.00 | 0.00 | 87 | 1012.9 |
| 20260506085335 | 13 | 136 | 8.0 | 29.0 | 0.00 | 0.00 | 0.00 | 87 | 1012.8 |
| 20260506085235 | 13 | 171 | 8.0 | 29.0 | 0.00 | 0.00 | 0.00 | 87 | 1012.8 |
| 20260506085129 | 13 | 142 | 8.0 | 29.0 | 0.00 | 0.00 | 0.00 | 87 | 1012.8 |
| 20260506085028 | 13 | 180 | 8.0 | 29.0 | 0.00 | 0.00 | 0.00 | 86 | 1012.9 |
| 20260506084930 | 13 | 142 | 8.0 | 19.3 | 0.00 | 0.00 | 0.00 | 86 | 1012.9 |
| 20260506084830 | 13 | 149 | 8.0 | 19.3 | 0.00 | 0.00 | 0.00 | 87 | 1012.8 |
| 20260506084730 | 13 | 153 | 8.0 | 19.3 | 0.00 | 0.00 | 0.00 | 86 | 1012.8 |
| 20260506084625 | 13 | 148 | 8.0 | 19.3 | 0.00 | 0.00 | 0.00 | 86 | 1012.8 |
| 20260506084525 | 13 | 183 | 8.0 | 19.3 | 0.00 | 0.00 | 0.00 | 86 | 1012.8 |
| 20260506084425 | 13 | 172 | 8.0 | 19.3 | 0.00 | 0.00 | 0.00 | 86 | 1012.8 |
| 20260506084325 | 13 | 178 | 8.0 | 19.3 | 0.00 | 0.00 | 0.00 | 86 | 1012.9 |
| 20260506084223 | 13 | 156 | 8.0 | 19.3 | 0.00 | 0.00 | 0.00 | 86 | 1012.9 |
| 20260506084115 | 13 | 142 | 8.0 | 19.3 | 0.00 | 0.00 | 0.00 | 86 | 1012.9 |
| 20260506084015 | 13 | 167 | 8.0 | 19.3 | 0.00 | 0.00 | 0.00 | 86 | 1013.0 |
| 20260506083914 | 13 | 147 | 8.0 | 22.5 | 0.00 | 0.00 | 0.00 | 86 | 1012.9 |
| 20260506083813 | 13 | 148 | 8.0 | 22.5 | 0.00 | 0.00 | 0.00 | 86 | 1012.9 |
| 20260506083714 | 13 | 142 | 8.0 | 22.5 | 0.00 | 0.00 | 0.00 | 86 | 1012.9 |
| 20260506083608 | 13 | 169 | 8.0 | 22.5 | 0.00 | 0.00 | 0.00 | 86 | 1012.9 |
| 20260506083508 | 13 | 179 | 8.0 | 22.5 | 0.00 | 0.00 | 0.00 | 86 | 1012.8 |
| 20260506083409 | 13 | 145 | 8.0 | 22.5 | 0.00 | 0.00 | 0.00 | 86 | 1012.8 |
| 20260506083308 | 13 | 128 | 8.0 | 22.5 | 0.00 | 0.00 | 0.00 | 86 | 1012.8 |
| 20260506083208 | 13 | 138 | 6.4 | 22.5 | 0.00 | 0.00 | 0.00 | 86 | 1012.9 |
| 20260506083100 | 13 | 142 | 8.0 | 22.5 | 0.00 | 0.00 | 0.00 | 86 | 1012.9 |
| 20260506083001 | 13 | 162 | 6.4 | 22.5 | 0.00 | 0.00 | 0.00 | 85 | 1013.0 |
| 20260506082901 | 13 | 158 | 6.4 | 16.1 | 0.00 | 0.00 | 0.00 | 85 | 1013.1 |
| 20260506082802 | 13 | 173 | 8.0 | 16.1 | 0.00 | 0.00 | 0.00 | 85 | 1013.0 |
| 20260506082702 | 13 | 139 | 8.0 | 16.1 | 0.00 | 0.00 | 0.00 | 85 | 1013.0 |
| 20260506082550 | 13 | 161 | 6.4 | 16.1 | 0.00 | 0.00 | 0.00 | 85 | 1012.9 |
| 20260506082452 | 13 | 183 | 8.0 | 16.1 | 0.00 | 0.00 | 0.00 | 85 | 1013.0 |
| 20260506082352 | 13 | 164 | 8.0 | 16.1 | 0.00 | 0.00 | 0.00 | 85 | 1013.0 |
| 20260506082252 | 13 | 188 | 8.0 | 16.1 | 0.00 | 0.00 | 0.00 | 85 | 1012.9 |
| 20260506082152 | 13 | 124 | 8.0 | 16.1 | 0.00 | 0.00 | 0.00 | 85 | 1012.8 |
| 20260506082051 | 13 | 170 | 8.0 | 17.7 | 0.00 | 0.00 | 0.00 | 85 | 1012.9 |
| 20260506081950 | 13 | 132 | 9.7 | 24.1 | 0.00 | 0.00 | 0.00 | 85 | 1012.9 |
| 20260506081849 | 13 | 153 | 9.7 | 24.1 | 0.00 | 0.00 | 0.00 | 85 | 1012.9 |
| 20260506081747 | 13 | 175 | 11.3 | 24.1 | 0.00 | 0.00 | 0.00 | 85 | 1012.9 |
| 20260506081646 | 13 | 137 | 11.3 | 24.1 | 0.00 | 0.00 | 0.00 | 85 | 1012.9 |
| 20260506081538 | 13 | 162 | 11.3 | 24.1 | 0.00 | 0.00 | 0.00 | 85 | 1012.9 |
| 20260506081439 | 13 | 142 | 11.3 | 24.1 | 0.00 | 0.00 | 0.00 | 85 | 1013.0 |
| 20260506081340 | 13 | 166 | 11.3 | 24.1 | 0.00 | 0.00 | 0.00 | 85 | 1013.0 |
| 20260506081239 | 13 | 165 | 11.3 | 24.1 | 0.00 | 0.00 | 0.00 | 85 | 1012.9 |
| 20260506081140 | 13 | 190 | 11.3 | 24.1 | 0.00 | 0.00 | 0.00 | 85 | 1012.7 |
| 20260506081036 | 13 | 136 | 11.3 | 24.1 | 0.00 | 0.00 | 0.00 | 85 | 1012.7 |
| 20260506080936 | 13 | 132 | 9.7 | 24.1 | 0.00 | 0.00 | 0.00 | 84 | 1012.7 |
| 20260506080835 | 13 | 191 | 9.7 | 24.1 | 0.00 | 0.00 | 0.00 | 84 | 1012.7 |
| 20260506080734 | 14 | 136 | 9.7 | 22.5 | 0.00 | 0.00 | 0.00 | 84 | 1012.5 |
| 20260506080632 | 14 | 144 | 9.7 | 22.5 | 0.00 | 0.00 | 0.00 | 84 | 1012.5 |
| 20260506080533 | 14 | 134 | 9.7 | 22.5 | 0.00 | 0.00 | 0.00 | 84 | 1012.6 |
| 20260506080433 | 14 | 133 | 9.7 | 22.5 | 0.00 | 0.00 | 0.00 | 84 | 1012.5 |
| 20260506080332 | 14 | 177 | 8.0 | 17.7 | 0.00 | 0.00 | 0.00 | 84 | 1012.5 |
| 20260506080232 | 14 | 167 | 9.7 | 25.7 | 0.00 | 0.00 | 0.00 | 84 | 1012.7 |
| 20260506080131 | 14 | 163 | 9.7 | 25.7 | 0.00 | 0.00 | 0.00 | 84 | 1012.8 |
| 20260506073521 | 14 | 189 | 9.7 | 22.5 | 0.00 | 0.00 | 0.00 | 83 | 1012.9 |
| 20260506073422 | 14 | 117 | 9.7 | 22.5 | 0.00 | 0.00 | 0.00 | 83 | 1012.9 |
| 20260506073322 | 14 | 138 | 9.7 | 22.5 | 0.00 | 0.00 | 0.00 | 83 | 1012.9 |
| 20260506073222 | 14 | 132 | 9.7 | 22.5 | 0.00 | 0.00 | 0.00 | 82 | 1013.0 |
| 20260506073115 | 14 | 150 | 9.7 | 22.5 | 0.00 | 0.00 | 0.00 | 82 | 1013.0 |
| 20260506073016 | 14 | 143 | 9.7 | 22.5 | 0.00 | 0.00 | 0.00 | 82 | 1013.0 |
| 20260506072916 | 14 | 134 | 9.7 | 24.1 | 0.00 | 0.00 | 0.00 | 82 | 1013.0 |
| 20260506072816 | 14 | 130 | 11.3 | 24.1 | 0.00 | 0.00 | 0.00 | 82 | 1013.0 |
| 20260506072716 | 14 | 144 | 11.3 | 24.1 | 0.00 | 0.00 | 0.00 | 82 | 1013.0 |
| 20260506072610 | 14 | 171 | 9.7 | 24.1 | 0.00 | 0.00 | 0.00 | 82 | 1012.9 |
| 20260506072512 | 14 | 172 | 9.7 | 24.1 | 0.00 | 0.00 | 0.00 | 82 | 1013.0 |
| 20260506072412 | 14 | 190 | 9.7 | 24.1 | 0.00 | 0.00 | 0.00 | 81 | 1012.9 |
| 20260506072311 | 14 | 144 | 11.3 | 24.1 | 0.00 | 0.00 | 0.00 | 81 | 1013.0 |
| 20260506072212 | 14 | 148 | 11.3 | 24.1 | 0.00 | 0.00 | 0.00 | 82 | 1012.9 |
| 20260506072112 | 14 | 201 | 11.3 | 29.0 | 0.00 | 0.00 | 0.00 | 81 | 1013.0 |
| 20260506072011 | 14 | 184 | 11.3 | 29.0 | 0.00 | 0.00 | 0.00 | 81 | 1013.0 |
| 20260506071909 | 14 | 163 | 9.7 | 29.0 | 0.00 | 0.00 | 0.00 | 81 | 1013.2 |
| 20260506071808 | 14 | 161 | 9.7 | 29.0 | 0.00 | 0.00 | 0.00 | 81 | 1013.2 |
| 20260506071708 | 14 | 148 | 9.7 | 29.0 | 0.00 | 0.00 | 0.00 | 81 | 1013.2 |
| 20260506071608 | 14 | 171 | 11.3 | 29.0 | 0.00 | 0.00 | 0.00 | 81 | 1013.1 |
| 20260506071507 | 14 | 171 | 9.7 | 29.0 | 0.00 | 0.00 | 0.00 | 81 | 1013.1 |
| 20260506071406 | 14 | 141 | 11.3 | 29.0 | 0.00 | 0.00 | 0.00 | 81 | 1013.2 |
| 20260506071308 | 14 | 180 | 11.3 | 29.0 | 0.00 | 0.00 | 0.00 | 81 | 1013.2 |
| 20260506071206 | 14 | 143 | 11.3 | 29.0 | 0.00 | 0.00 | 0.00 | 81 | 1013.3 |
| 20260506071108 | 14 | 151 | 11.3 | 25.7 | 0.00 | 0.00 | 0.00 | 81 | 1013.1 |
| 20260506071008 | 14 | 139 | 11.3 | 25.7 | 0.00 | 0.00 | 0.00 | 81 | 1013.2 |
| 20260506070901 | 14 | 157 | 9.7 | 25.7 | 0.00 | 0.00 | 0.00 | 81 | 1013.1 |
| 20260506070801 | 14 | 168 | 9.7 | 25.7 | 0.00 | 0.00 | 0.00 | 81 | 1013.2 |
| 20260506070702 | 14 | 157 | 9.7 | 25.7 | 0.00 | 0.00 | 0.00 | 81 | 1013.1 |
| 20260506070600 | 14 | 155 | 9.7 | 25.7 | 0.00 | 0.00 | 0.00 | 81 | 1013.2 |
| 20260506070502 | 14 | 138 | 11.3 | 20.9 | 0.00 | 0.00 | 0.00 | 81 | 1013.1 |
| 20260506070358 | 14 | 165 | 9.7 | 27.4 | 0.00 | 0.00 | 0.00 | 81 | 1013.2 |
| 20260506070255 | 14 | 219 | 9.7 | 27.4 | 0.00 | 0.00 | 0.00 | 81 | 1013.2 |
| 20260506070156 | 14 | 153 | 9.7 | 27.4 | 0.00 | 0.00 | 0.00 | 81 | 1013.2 |
| 20260506062426 | 15 | 167 | 9.7 | 20.9 | 0.00 | 0.00 | 0.00 | 77 | 1013.4 |
| 20260506062325 | 15 | 146 | 9.7 | 20.9 | 0.00 | 0.00 | 0.00 | 77 | 1013.3 |
| 20260506062226 | 15 | 184 | 9.7 | 20.9 | 0.00 | 0.00 | 0.00 | 77 | 1013.3 |
| 20260506062124 | 15 | 145 | 9.7 | 20.9 | 0.00 | 0.00 | 0.00 | 77 | 1013.3 |
| 20260506062026 | 15 | 133 | 9.7 | 20.9 | 0.00 | 0.00 | 0.00 | 77 | 1013.4 |
| 20260506061926 | 15 | 158 | 9.7 | 20.9 | 0.00 | 0.00 | 0.00 | 76 | 1013.4 |
| 20260506061825 | 15 | 140 | 9.7 | 22.5 | 0.00 | 0.00 | 0.00 | 76 | 1013.5 |
| 20260506061726 | 15 | 144 | 9.7 | 22.5 | 0.00 | 0.00 | 0.00 | 76 | 1013.4 |
| 20260506061624 | 15 | 150 | 9.7 | 22.5 | 0.00 | 0.00 | 0.00 | 76 | 1013.5 |
| 20260506061523 | 15 | 148 | 9.7 | 22.5 | 0.00 | 0.00 | 0.00 | 76 | 1013.4 |
| 20260506061422 | 15 | 172 | 8.0 | 22.5 | 0.00 | 0.00 | 0.00 | 76 | 1013.5 |
| 20260506061323 | 15 | 140 | 8.0 | 22.5 | 0.00 | 0.00 | 0.00 | 75 | 1013.5 |
| 20260506061222 | 15 | 148 | 8.0 | 22.5 | 0.00 | 0.00 | 0.00 | 75 | 1013.5 |
| 20260506061124 | 15 | 142 | 8.0 | 22.5 | 0.00 | 0.00 | 0.00 | 75 | 1013.5 |
| 20260506061024 | 15 | 155 | 8.0 | 22.5 | 0.00 | 0.00 | 0.00 | 75 | 1013.5 |
| 20260506060915 | 15 | 146 | 8.0 | 22.5 | 0.00 | 0.00 | 0.00 | 75 | 1013.4 |
| 20260506060812 | 15 | 108 | 8.0 | 22.5 | 0.00 | 0.00 | 0.00 | 75 | 1013.5 |
| 20260506060713 | 15 | 148 | 8.0 | 22.5 | 0.00 | 0.00 | 0.00 | 75 | 1013.7 |
| 20260506060613 | 15 | 146 | 8.0 | 22.5 | 0.00 | 0.00 | 0.00 | 75 | 1013.5 |
| 20260506060513 | 15 | 161 | 8.0 | 22.5 | 0.00 | 0.00 | 0.00 | 75 | 1013.5 |
| 20260506060412 | 15 | 136 | 8.0 | 22.5 | 0.00 | 0.00 | 0.00 | 75 | 1013.7 |
| 20260506060313 | 15 | 150 | 8.0 | 22.5 | 0.00 | 0.00 | 0.00 | 74 | 1013.7 |
| 20260506060214 | 15 | 155 | 8.0 | 22.5 | 0.00 | 0.00 | 0.00 | 74 | 1013.7 |
| 20260506060114 | 15 | 152 | 8.0 | 22.5 | 0.00 | 0.00 | 0.00 | 74 | 1013.7 |
| 20260506051400 | 16 | 173 | 9.7 | 20.9 | 0.00 | 0.00 | 0.00 | 68 | 1013.7 |
| 20260506051300 | 16 | 160 | 9.7 | 20.9 | 0.00 | 0.00 | 0.00 | 67 | 1013.5 |
| 20260506051202 | 16 | 155 | 9.7 | 20.9 | 0.00 | 0.00 | 0.00 | 67 | 1013.5 |
| 20260506051056 | 16 | 148 | 11.3 | 20.9 | 0.00 | 0.00 | 0.00 | 67 | 1013.7 |
| 20260506050956 | 16 | 142 | 11.3 | 20.9 | 0.00 | 0.00 | 0.00 | 67 | 1013.5 |
| 20260506050858 | 16 | 145 | 9.7 | 20.9 | 0.00 | 0.00 | 0.00 | 67 | 1013.5 |
| 20260506050757 | 16 | 135 | 9.7 | 20.9 | 0.00 | 0.00 | 0.00 | 67 | 1013.7 |
| 20260506050658 | 16 | 152 | 9.7 | 20.9 | 0.00 | 0.00 | 0.00 | 67 | 1013.7 |
| 20260506050557 | 16 | 147 | 9.7 | 20.9 | 0.00 | 0.00 | 0.00 | 66 | 1013.7 |
| 20260506050455 | 16 | 153 | 9.7 | 20.9 | 0.00 | 0.00 | 0.00 | 66 | 1013.7 |
| 20260506050356 | 16 | 142 | 9.7 | 20.9 | 0.00 | 0.00 | 0.00 | 66 | 1013.7 |
| 20260506050255 | 16 | 180 | 9.7 | 20.9 | 0.00 | 0.00 | 0.00 | 66 | 1013.8 |
| 20260506050155 | 16 | 142 | 9.7 | 20.9 | 0.00 | 0.00 | 0.00 | 66 | 1013.8 |
| 20260506045048 | 16 | 148 | 8.0 | 22.5 | 0.00 | 0.00 | 0.00 | 64 | 1013.9 |
| 20260506044946 | 16 | 176 | 8.0 | 22.5 | 0.00 | 0.00 | 0.00 | 65 | 1013.9 |
| 20260506044846 | 16 | 153 | 8.0 | 22.5 | 0.00 | 0.00 | 0.00 | 64 | 1013.9 |
| 20260506044747 | 16 | 163 | 9.7 | 22.5 | 0.00 | 0.00 | 0.00 | 64 | 1013.9 |
| 20260506044646 | 16 | 154 | 9.7 | 22.5 | 0.00 | 0.00 | 0.00 | 64 | 1013.7 |
| 20260506044547 | 17 | 186 | 9.7 | 22.5 | 0.00 | 0.00 | 0.00 | 64 | 1013.8 |
| 20260506044448 | 17 | 140 | 9.7 | 22.5 | 0.00 | 0.00 | 0.00 | 64 | 1013.7 |
| 20260506044346 | 17 | 133 | 9.7 | 24.1 | 0.00 | 0.00 | 0.00 | 64 | 1013.7 |
| 20260506044248 | 17 | 126 | 9.7 | 24.1 | 0.00 | 0.00 | 0.00 | 64 | 1013.5 |
| 20260506044146 | 17 | 146 | 11.3 | 24.1 | 0.00 | 0.00 | 0.00 | 64 | 1013.5 |
| 20260506044046 | 17 | 174 | 9.7 | 24.1 | 0.00 | 0.00 | 0.00 | 64 | 1013.5 |
| 20260506043946 | 17 | 152 | 9.7 | 24.1 | 0.00 | 0.00 | 0.00 | 64 | 1013.4 |
| 20260506043848 | 17 | 131 | 9.7 | 24.1 | 0.00 | 0.00 | 0.00 | 64 | 1013.5 |
| 20260506043746 | 17 | 152 | 9.7 | 24.1 | 0.00 | 0.00 | 0.00 | 63 | 1013.4 |
| 20260506043646 | 17 | 150 | 9.7 | 24.1 | 0.00 | 0.00 | 0.00 | 63 | 1013.3 |
| 20260506043548 | 17 | 134 | 9.7 | 24.1 | 0.00 | 0.00 | 0.00 | 63 | 1013.5 |
| 20260506043446 | 17 | 182 | 9.7 | 24.1 | 0.00 | 0.00 | 0.00 | 63 | 1013.4 |
| 20260506043346 | 17 | 142 | 9.7 | 24.1 | 0.00 | 0.00 | 0.00 | 63 | 1013.5 |
| 20260506043248 | 17 | 162 | 9.7 | 24.1 | 0.00 | 0.00 | 0.00 | 63 | 1013.5 |
| 20260506043146 | 17 | 115 | 9.7 | 24.1 | 0.00 | 0.00 | 0.00 | 63 | 1013.5 |
| 20260506043047 | 17 | 146 | 9.7 | 24.1 | 0.00 | 0.00 | 0.00 | 63 | 1013.8 |
| 20260506042947 | 17 | 167 | 9.7 | 24.1 | 0.00 | 0.00 | 0.00 | 63 | 1013.7 |
| 20260506042846 | 17 | 167 | 11.3 | 24.1 | 0.00 | 0.00 | 0.00 | 63 | 1013.7 |
| 20260506042748 | 17 | 150 | 11.3 | 24.1 | 0.00 | 0.00 | 0.00 | 63 | 1013.7 |
| 20260506042648 | 17 | 132 | 9.7 | 24.1 | 0.00 | 0.00 | 0.00 | 63 | 1013.9 |
| 20260506042547 | 17 | 143 | 9.7 | 24.1 | 0.00 | 0.00 | 0.00 | 63 | 1013.8 |
| 20260506042447 | 17 | 142 | 9.7 | 24.1 | 0.00 | 0.00 | 0.00 | 63 | 1013.9 |
| 20260506042346 | 17 | 159 | 9.7 | 22.5 | 0.00 | 0.00 | 0.00 | 63 | 1013.8 |
| 20260506042247 | 17 | 142 | 9.7 | 27.4 | 0.00 | 0.00 | 0.00 | 63 | 1013.8 |
| 20260506042147 | 17 | 169 | 9.7 | 27.4 | 0.00 | 0.00 | 0.00 | 63 | 1013.9 |
| 20260506042047 | 17 | 186 | 9.7 | 27.4 | 0.00 | 0.00 | 0.00 | 63 | 1013.8 |
| 20260506041948 | 17 | 121 | 9.7 | 27.4 | 0.00 | 0.00 | 0.00 | 63 | 1013.8 |
| 20260506041842 | 17 | 138 | 9.7 | 27.4 | 0.00 | 0.00 | 0.00 | 63 | 1013.8 |
| 20260506041743 | 17 | 211 | 9.7 | 27.4 | 0.00 | 0.00 | 0.00 | 63 | 1013.8 |
| 20260506041644 | 17 | 136 | 9.7 | 27.4 | 0.00 | 0.00 | 0.00 | 63 | 1013.8 |
| 20260506041542 | 17 | 138 | 9.7 | 27.4 | 0.00 | 0.00 | 0.00 | 63 | 1013.9 |
| 20260506041442 | 17 | 171 | 9.7 | 27.4 | 0.00 | 0.00 | 0.00 | 63 | 1013.9 |
| 20260506041343 | 17 | 146 | 9.7 | 27.4 | 0.00 | 0.00 | 0.00 | 63 | 1013.9 |
| 20260506041242 | 17 | 138 | 9.7 | 25.7 | 0.00 | 0.00 | 0.00 | 63 | 1013.9 |
| 20260506041140 | 17 | 169 | 8.0 | 25.7 | 0.00 | 0.00 | 0.00 | 63 | 1013.8 |
| 20260506041040 | 17 | 131 | 8.0 | 19.3 | 0.00 | 0.00 | 0.00 | 63 | 1013.8 |
| 20260506040942 | 17 | 144 | 8.0 | 19.3 | 0.00 | 0.00 | 0.00 | 63 | 1013.8 |
| 20260506040840 | 17 | 130 | 8.0 | 19.3 | 0.00 | 0.00 | 0.00 | 63 | 1013.8 |
| 20260506040740 | 17 | 135 | 8.0 | 19.3 | 0.00 | 0.00 | 0.00 | 63 | 1013.9 |
| 20260506040640 | 17 | 169 | 8.0 | 19.3 | 0.00 | 0.00 | 0.00 | 63 | 1013.8 |
| 20260506040540 | 17 | 161 | 8.0 | 19.3 | 0.00 | 0.00 | 0.00 | 63 | 1013.8 |
| 20260506040441 | 17 | 182 | 8.0 | 17.7 | 0.00 | 0.00 | 0.00 | 63 | 1013.8 |
| 20260506040340 | 17 | 165 | 8.0 | 17.7 | 0.00 | 0.00 | 0.00 | 63 | 1013.7 |
| 20260506040242 | 17 | 157 | 8.0 | 17.7 | 0.00 | 0.00 | 0.00 | 63 | 1013.8 |
| 20260506040141 | 17 | 149 | 8.0 | 17.7 | 0.00 | 0.00 | 0.00 | 63 | 1013.8 |
| 20260506040041 | 17 | 150 | 8.0 | 17.7 | 0.00 | 0.00 | 0.00 | 62 | 1013.8 |
| 20260506035936 | 17 | 142 | 8.0 | 17.7 | 0.00 | 0.00 | 0.00 | 62 | 1013.8 |
| 20260506035834 | 17 | 177 | 9.7 | 17.7 | 0.00 | 0.00 | 0.00 | 62 | 1013.8 |
| 20260506035736 | 17 | 272 | 9.7 | 20.9 | 0.00 | 0.00 | 0.00 | 62 | 1013.7 |
| 20260506035636 | 17 | 150 | 9.7 | 20.9 | 0.00 | 0.00 | 0.00 | 62 | 1013.7 |
| 20260506035536 | 17 | 173 | 9.7 | 20.9 | 0.00 | 0.00 | 0.00 | 62 | 1013.7 |
| 20260506035430 | 17 | 157 | 9.7 | 20.9 | 0.00 | 0.00 | 0.00 | 62 | 1013.7 |
| 20260506035331 | 17 | 174 | 9.7 | 20.9 | 0.00 | 0.00 | 0.00 | 62 | 1013.7 |
| 20260506035231 | 17 | 180 | 9.7 | 20.9 | 0.00 | 0.00 | 0.00 | 62 | 1013.8 |
| 20260506035132 | 17 | 161 | 9.7 | 20.9 | 0.00 | 0.00 | 0.00 | 62 | 1013.8 |
| 20260506035029 | 17 | 150 | 9.7 | 24.1 | 0.00 | 0.00 | 0.00 | 62 | 1013.8 |
| 20260506034923 | 17 | 150 | 9.7 | 24.1 | 0.00 | 0.00 | 0.00 | 62 | 1013.8 |
| 20260506034822 | 17 | 149 | 9.7 | 24.1 | 0.00 | 0.00 | 0.00 | 62 | 1013.8 |
| 20260506034723 | 17 | 148 | 8.0 | 24.1 | 0.00 | 0.00 | 0.00 | 62 | 1013.9 |
| 20260506034622 | 17 | 169 | 8.0 | 24.1 | 0.00 | 0.00 | 0.00 | 62 | 1013.8 |
| 20260506034523 | 17 | 140 | 8.0 | 24.1 | 0.00 | 0.00 | 0.00 | 62 | 1013.9 |
| 20260506034422 | 17 | 162 | 8.0 | 24.1 | 0.00 | 0.00 | 0.00 | 62 | 1013.9 |
| 20260506034322 | 17 | 157 | 8.0 | 24.1 | 0.00 | 0.00 | 0.00 | 61 | 1013.9 |
| 20260506034222 | 17 | 125 | 8.0 | 24.1 | 0.00 | 0.00 | 0.00 | 62 | 1013.9 |
| 20260506034123 | 17 | 159 | 8.0 | 24.1 | 0.00 | 0.00 | 0.00 | 62 | 1013.9 |
| 20260506034023 | 17 | 144 | 8.0 | 17.7 | 0.00 | 0.00 | 0.00 | 62 | 1014.0 |
| 20260506033922 | 17 | 115 | 8.0 | 17.7 | 0.00 | 0.00 | 0.00 | 62 | 1013.9 |
| 20260506033823 | 17 | 146 | 6.4 | 16.1 | 0.00 | 0.00 | 0.00 | 62 | 1014.0 |
| 20260506033722 | 17 | 142 | 8.0 | 16.1 | 0.00 | 0.00 | 0.00 | 62 | 1014.0 |
| 20260506033620 | 17 | 176 | 8.0 | 16.1 | 0.00 | 0.00 | 0.00 | 61 | 1014.1 |
| 20260506033520 | 17 | 167 | 8.0 | 16.1 | 0.00 | 0.00 | 0.00 | 61 | 1014.0 |
| 20260506033421 | 17 | 147 | 8.0 | 16.1 | 0.00 | 0.00 | 0.00 | 61 | 1013.9 |
| 20260506033322 | 17 | 196 | 6.4 | 16.1 | 0.00 | 0.00 | 0.00 | 61 | 1014.0 |